Time,TemperatureF,DewpointF,PressureIn,WindDirection,WindDirectionDegrees,WindSpeedMPH,WindSpeedGustMPH,Humidity,HourlyPrecipIn,Conditions,Clouds,dailyrainin,SoftwareType,DateUTC
2013-05-05 00:02:00,61.5,39.9,29.89,SE,131,0.0,0.0,45,0.00,,,0.00,Wunderground v.1.15,2013-05-05 05:02:00,
2013-05-05 00:04:00,61.3,39.8,29.89,SE,133,0.0,0.0,45,0.00,,,0.00,Wunderground v.1.15,2013-05-05 05:04:00,
2013-05-05 00:05:00,61.3,39.8,29.89,SE,133,0.0,0.0,45,0.00,,,0.00,Wunderground v.1.15,2013-05-05 05:05:00,
2013-05-05 00:07:00,61.3,39.8,29.89,SE,143,0.0,0.0,45,0.00,,,0.00,Wunderground v.1.15,2013-05-05 05:07:00,
2013-05-05 00:09:00,61.3,39.8,29.89,SE,143,0.0,0.0,45,0.00,,,0.00,Wunderground v.1.15,2013-05-05 05:09:00,
2013-05-05 00:10:00,61.2,39.7,29.89,SE,143,0.0,0.0,45,0.00,,,0.00,Wunderground v.1.15,2013-05-05 05:10:00,
2013-05-05 00:11:00,61.2,39.7,29.89,SE,143,0.0,0.0,45,0.00,,,0.00,Wunderground v.1.15,2013-05-05 05:11:00,
2013-05-05 00:12:00,61.2,39.7,29.89,SE,143,0.0,0.0,45,0.00,,,0.00,Wunderground v.1.15,2013-05-05 05:12:00,
2013-05-05 00:13:00,61.2,39.7,29.89,SE,143,0.0,0.0,45,0.00,,,0.00,Wunderground v.1.15,2013-05-05 05:13:00,
2013-05-05 00:14:00,61.2,39.7,29.89,SE,143,0.0,0.0,45,0.00,,,0.00,Wunderground v.1.15,2013-05-05 05:14:00,
2013-05-05 00:17:00,61.0,39.5,29.89,SE,143,0.0,0.0,45,0.00,,,0.00,Wunderground v.1.15,2013-05-05 05:17:00,
2013-05-05 00:19:00,61.0,40.6,29.89,SE,143,0.0,0.0,47,0.00,,,0.00,Wunderground v.1.15,2013-05-05 05:19:00,
2013-05-05 00:21:00,61.0,40.1,29.89,SE,143,0.0,0.0,46,0.00,,,0.00,Wunderground v.1.15,2013-05-05 05:21:00,
2013-05-05 00:22:00,61.0,40.1,29.89,SE,143,0.0,0.0,46,0.00,,,0.00,Wunderground v.1.15,2013-05-05 05:22:00,
2013-05-05 00:27:00,60.9,40.5,29.89,SE,143,0.0,0.0,47,0.00,,,0.00,Wunderground v.1.15,2013-05-05 05:27:00,
2013-05-05 00:29:00,60.9,40.5,29.89,SE,143,0.0,0.0,47,0.00,,,0.00,Wunderground v.1.15,2013-05-05 05:29:00,
2013-05-05 00:30:00,60.9,40.5,29.89,SE,143,0.0,0.0,47,0.00,,,0.00,Wunderground v.1.15,2013-05-05 05:30:00,
2013-05-05 00:31:00,60.7,40.9,29.89,SE,143,0.0,0.0,48,0.00,,,0.00,Wunderground v.1.15,2013-05-05 05:31:00,
2013-05-05 00:34:00,60.7,41.4,29.89,SE,143,0.0,0.0,49,0.00,,,0.00,Wunderground v.1.15,2013-05-05 05:34:00,
2013-05-05 00:39:00,60.4,41.7,29.89,SE,143,0.0,0.0,50,0.00,,,0.00,Wunderground v.1.15,2013-05-05 05:39:00,
2013-05-05 00:40:00,60.4,41.7,29.89,SE,143,0.0,0.0,50,0.00,,,0.00,Wunderground v.1.15,2013-05-05 05:40:00,
2013-05-05 00:41:00,60.4,42.2,29.89,SE,143,0.0,0.0,51,0.00,,,0.00,Wunderground v.1.15,2013-05-05 05:41:00,
2013-05-05 00:42:00,60.4,42.2,29.89,SE,143,0.0,0.0,51,0.00,,,0.00,Wunderground v.1.15,2013-05-05 05:42:00,
2013-05-05 00:45:00,60.2,42.0,29.89,SE,143,0.0,0.0,51,0.00,,,0.00,Wunderground v.1.15,2013-05-05 05:45:00,
2013-05-05 00:46:00,60.2,42.5,29.89,SE,143,0.0,0.0,52,0.00,,,0.00,Wunderground v.1.15,2013-05-05 05:46:00,
2013-05-05 00:49:00,60.1,42.4,29.89,SE,143,0.0,0.0,52,0.00,,,0.00,Wunderground v.1.15,2013-05-05 05:49:00,
2013-05-05 00:50:00,60.1,42.4,29.89,SE,143,0.0,0.0,52,0.00,,,0.00,Wunderground v.1.15,2013-05-05 05:50:00,
2013-05-05 00:51:00,60.1,42.4,29.89,SE,143,0.0,0.0,52,0.00,,,0.00,Wunderground v.1.15,2013-05-05 05:51:00,
2013-05-05 00:54:00,59.9,42.2,29.89,SE,143,0.0,0.0,52,0.00,,,0.00,Wunderground v.1.15,2013-05-05 05:54:00,
2013-05-05 00:56:00,59.9,42.2,29.89,SE,143,0.0,0.0,52,0.00,,,0.00,Wunderground v.1.15,2013-05-05 05:56:00,
2013-05-05 00:57:00,59.9,42.2,29.89,SE,143,0.0,0.0,52,0.00,,,0.00,Wunderground v.1.15,2013-05-05 05:57:00,
2013-05-05 00:59:00,59.9,42.2,29.89,SE,143,0.0,0.0,52,0.00,,,0.00,Wunderground v.1.15,2013-05-05 05:59:00,
2013-05-05 01:00:00,59.9,42.2,29.89,SE,143,0.0,0.0,52,0.00,,,0.00,Wunderground v.1.15,2013-05-05 06:00:00,
2013-05-05 01:01:00,59.9,42.2,29.89,SE,143,0.0,1.0,52,0.00,,,0.00,Wunderground v.1.15,2013-05-05 06:01:00,
2013-05-05 01:02:00,59.9,42.2,29.89,SE,143,0.0,1.0,52,0.00,,,0.00,Wunderground v.1.15,2013-05-05 06:02:00,
2013-05-05 01:04:00,59.9,42.2,29.89,SE,143,0.0,1.0,52,0.00,,,0.00,Wunderground v.1.15,2013-05-05 06:04:00,
2013-05-05 01:05:00,59.9,42.2,29.89,SE,143,0.0,1.0,52,0.00,,,0.00,Wunderground v.1.15,2013-05-05 06:05:00,
2013-05-05 01:07:00,60.1,41.9,29.89,SSE,155,0.0,2.0,51,0.00,,,0.00,Wunderground v.1.15,2013-05-05 06:07:00,
2013-05-05 01:12:00,60.2,41.5,29.89,SSE,157,1.0,2.0,50,0.00,,,0.00,Wunderground v.1.15,2013-05-05 06:12:00,
2013-05-05 01:13:00,60.2,41.5,29.89,SSE,157,1.0,2.0,50,0.00,,,0.00,Wunderground v.1.15,2013-05-05 06:13:00,
2013-05-05 01:14:00,60.4,41.7,29.89,SSE,157,1.0,2.0,50,0.00,,,0.00,Wunderground v.1.15,2013-05-05 06:14:00,
2013-05-05 01:15:00,60.4,41.7,29.89,SSE,157,1.0,2.0,50,0.00,,,0.00,Wunderground v.1.15,2013-05-05 06:15:00,
2013-05-05 01:17:00,60.4,41.7,29.89,SSE,157,1.0,2.0,50,0.00,,,0.00,Wunderground v.1.15,2013-05-05 06:17:00,
2013-05-05 01:18:00,60.5,41.8,29.89,SSE,162,1.0,2.0,50,0.00,,,0.00,Wunderground v.1.15,2013-05-05 06:18:00,
2013-05-05 01:20:00,60.5,41.8,29.89,South,181,1.0,2.0,50,0.00,,,0.00,Wunderground v.1.15,2013-05-05 06:20:00,
2013-05-05 01:22:00,60.5,41.8,29.89,South,181,1.0,2.0,50,0.00,,,0.00,Wunderground v.1.15,2013-05-05 06:22:00,
2013-05-05 01:23:00,60.5,41.8,29.89,South,181,2.0,2.0,50,0.00,,,0.00,Wunderground v.1.15,2013-05-05 06:23:00,
2013-05-05 01:24:00,60.5,41.8,29.89,South,181,2.0,2.0,50,0.00,,,0.00,Wunderground v.1.15,2013-05-05 06:24:00,
2013-05-05 01:27:00,60.7,41.9,29.89,South,181,2.0,2.0,50,0.00,,,0.00,Wunderground v.1.15,2013-05-05 06:27:00,
2013-05-05 01:30:00,60.7,41.9,29.89,South,181,1.0,2.0,50,0.00,,,0.00,Wunderground v.1.15,2013-05-05 06:30:00,
2013-05-05 01:33:00,60.7,41.9,29.89,South,179,1.0,3.0,50,0.00,,,0.00,Wunderground v.1.15,2013-05-05 06:33:00,
2013-05-05 01:35:00,60.7,42.5,29.89,NNE,21,2.0,5.0,51,0.00,,,0.00,Wunderground v.1.15,2013-05-05 06:35:00,
2013-05-05 01:36:00,60.7,42.5,29.89,North,0,2.0,5.0,51,0.00,,,0.00,Wunderground v.1.15,2013-05-05 06:36:00,
2013-05-05 01:39:00,60.4,42.2,29.89,North,359,3.0,3.0,51,0.00,,,0.00,Wunderground v.1.15,2013-05-05 06:39:00,
2013-05-05 01:41:00,60.4,41.7,29.89,North,0,3.0,4.0,50,0.00,,,0.00,Wunderground v.1.15,2013-05-05 06:41:00,
2013-05-05 01:42:00,60.4,41.7,29.89,North,0,3.0,4.0,50,0.00,,,0.00,Wunderground v.1.15,2013-05-05 06:42:00,
2013-05-05 01:46:00,60.4,41.7,29.89,North,0,3.0,4.0,50,0.00,,,0.00,Wunderground v.1.15,2013-05-05 06:46:00,
2013-05-05 01:48:00,60.4,41.7,29.90,North,0,2.0,4.0,50,0.00,,,0.00,Wunderground v.1.15,2013-05-05 06:48:00,
2013-05-05 01:49:00,60.4,41.7,29.90,North,0,2.0,2.0,50,0.00,,,0.00,Wunderground v.1.15,2013-05-05 06:49:00,
2013-05-05 01:50:00,60.4,41.7,29.90,North,0,2.0,2.0,50,0.00,,,0.00,Wunderground v.1.15,2013-05-05 06:50:00,
2013-05-05 01:52:00,60.4,42.2,29.90,North,0,2.0,2.0,51,0.00,,,0.00,Wunderground v.1.15,2013-05-05 06:52:00,
2013-05-05 01:55:00,60.2,42.0,29.90,North,0,1.0,2.0,51,0.00,,,0.00,Wunderground v.1.15,2013-05-05 06:55:00,
2013-05-05 01:57:00,60.1,41.4,29.90,North,0,1.0,2.0,50,0.00,,,0.00,Wunderground v.1.15,2013-05-05 06:57:00,
2013-05-05 01:58:00,60.1,41.9,29.90,North,0,0.0,0.0,51,0.00,,,0.00,Wunderground v.1.15,2013-05-05 06:58:00,
2013-05-05 01:59:00,59.9,41.7,29.90,North,0,0.0,0.0,51,0.00,,,0.00,Wunderground v.1.15,2013-05-05 06:59:00,
2013-05-05 02:02:00,59.9,41.7,29.90,North,0,0.0,0.0,51,0.00,,,0.00,Wunderground v.1.15,2013-05-05 07:02:00,
2013-05-05 02:03:00,59.9,41.7,29.90,North,0,0.0,0.0,51,0.00,,,0.00,Wunderground v.1.15,2013-05-05 07:03:00,
2013-05-05 02:06:00,59.8,42.1,29.90,North,0,0.0,0.0,52,0.00,,,0.00,Wunderground v.1.15,2013-05-05 07:06:00,
2013-05-05 02:07:00,59.6,41.9,29.90,North,0,0.0,0.0,52,0.00,,,0.00,Wunderground v.1.15,2013-05-05 07:07:00,
2013-05-05 02:08:00,59.6,41.9,29.90,North,0,0.0,0.0,52,0.00,,,0.00,Wunderground v.1.15,2013-05-05 07:08:00,
2013-05-05 02:09:00,59.5,41.9,29.90,North,0,0.0,0.0,52,0.00,,,0.00,Wunderground v.1.15,2013-05-05 07:09:00,
2013-05-05 02:12:00,59.3,42.2,29.90,North,0,0.0,0.0,53,0.00,,,0.00,Wunderground v.1.15,2013-05-05 07:12:00,
2013-05-05 02:14:00,59.2,42.1,29.90,North,0,0.0,0.0,53,0.00,,,0.00,Wunderground v.1.15,2013-05-05 07:14:00,
2013-05-05 02:15:00,59.2,42.1,29.90,North,0,0.0,0.0,53,0.00,,,0.00,Wunderground v.1.15,2013-05-05 07:15:00,
2013-05-05 02:18:00,58.9,42.3,29.89,North,0,0.0,0.0,54,0.00,,,0.00,Wunderground v.1.15,2013-05-05 07:18:00,
2013-05-05 02:19:00,58.7,42.6,29.89,North,0,0.0,0.0,55,0.00,,,0.00,Wunderground v.1.15,2013-05-05 07:19:00,
2013-05-05 02:23:00,58.4,42.8,29.89,North,0,0.0,0.0,56,0.00,,,0.00,Wunderground v.1.15,2013-05-05 07:23:00,
2013-05-05 02:24:00,58.3,42.2,29.89,North,0,0.0,0.0,55,0.00,,,0.00,Wunderground v.1.15,2013-05-05 07:24:00,
2013-05-05 02:26:00,58.3,42.2,29.89,North,0,0.0,0.0,55,0.00,,,0.00,Wunderground v.1.15,2013-05-05 07:26:00,
2013-05-05 02:27:00,58.1,42.0,29.89,North,0,0.0,0.0,55,0.00,,,0.00,Wunderground v.1.15,2013-05-05 07:27:00,
2013-05-05 02:28:00,58.1,42.5,29.89,North,0,0.0,0.0,56,0.00,,,0.00,Wunderground v.1.15,2013-05-05 07:28:00,
2013-05-05 02:32:00,58.0,42.4,29.89,North,0,0.0,1.0,56,0.00,,,0.00,Wunderground v.1.15,2013-05-05 07:32:00,
2013-05-05 02:33:00,58.0,41.9,29.89,North,0,0.0,2.0,55,0.00,,,0.00,Wunderground v.1.15,2013-05-05 07:33:00,
2013-05-05 02:36:00,58.0,41.9,29.89,North,0,1.0,3.0,55,0.00,,,0.00,Wunderground v.1.15,2013-05-05 07:36:00,
2013-05-05 02:37:00,58.0,41.9,29.89,North,0,1.0,3.0,55,0.00,,,0.00,Wunderground v.1.15,2013-05-05 07:37:00,
2013-05-05 02:39:00,58.0,41.9,29.89,North,0,1.0,1.0,55,0.00,,,0.00,Wunderground v.1.15,2013-05-05 07:39:00,
2013-05-05 02:40:00,58.0,41.9,29.89,North,0,1.0,3.0,55,0.00,,,0.00,Wunderground v.1.15,2013-05-05 07:40:00,
2013-05-05 02:42:00,58.0,41.9,29.89,North,0,2.0,3.0,55,0.00,,,0.00,Wunderground v.1.15,2013-05-05 07:42:00,
2013-05-05 02:43:00,58.0,41.9,29.89,North,0,2.0,3.0,55,0.00,,,0.00,Wunderground v.1.15,2013-05-05 07:43:00,
2013-05-05 02:45:00,58.1,42.0,29.89,North,0,1.0,3.0,55,0.00,,,0.00,Wunderground v.1.15,2013-05-05 07:45:00,
2013-05-05 02:47:00,58.1,42.0,29.89,North,0,1.0,3.0,55,0.00,,,0.00,Wunderground v.1.15,2013-05-05 07:47:00,
2013-05-05 02:50:00,58.1,42.0,29.89,North,0,1.0,3.0,55,0.00,,,0.00,Wunderground v.1.15,2013-05-05 07:50:00,
2013-05-05 02:52:00,58.3,41.7,29.89,North,0,1.0,3.0,54,0.00,,,0.00,Wunderground v.1.15,2013-05-05 07:52:00,
2013-05-05 02:53:00,58.3,41.7,29.89,North,0,1.0,3.0,54,0.00,,,0.00,Wunderground v.1.15,2013-05-05 07:53:00,
2013-05-05 02:55:00,58.3,41.7,29.89,North,0,0.0,3.0,54,0.00,,,0.00,Wunderground v.1.15,2013-05-05 07:55:00,
2013-05-05 02:56:00,58.3,41.7,29.89,North,0,0.0,3.0,54,0.00,,,0.00,Wunderground v.1.15,2013-05-05 07:56:00,
2013-05-05 03:00:00,58.3,41.2,29.89,North,0,1.0,2.0,53,0.00,,,0.00,Wunderground v.1.15,2013-05-05 08:00:00,
2013-05-05 03:01:00,58.3,41.7,29.89,North,0,1.0,2.0,54,0.00,,,0.00,Wunderground v.1.15,2013-05-05 08:01:00,
2013-05-05 03:02:00,58.3,41.7,29.89,North,0,1.0,2.0,54,0.00,,,0.00,Wunderground v.1.15,2013-05-05 08:02:00,
2013-05-05 03:03:00,58.3,41.7,29.89,North,0,1.0,2.0,54,0.00,,,0.00,Wunderground v.1.15,2013-05-05 08:03:00,
2013-05-05 03:06:00,58.1,41.5,29.89,North,356,2.0,2.0,54,0.00,,,0.00,Wunderground v.1.15,2013-05-05 08:06:00,
2013-05-05 03:08:00,58.0,41.9,29.89,North,356,2.0,2.0,55,0.00,,,0.00,Wunderground v.1.15,2013-05-05 08:08:00,
2013-05-05 03:11:00,57.8,41.7,29.89,North,357,1.0,2.0,55,0.00,,,0.00,Wunderground v.1.15,2013-05-05 08:11:00,
2013-05-05 03:12:00,57.8,41.7,29.89,North,357,1.0,2.0,55,0.00,,,0.00,Wunderground v.1.15,2013-05-05 08:12:00,
2013-05-05 03:15:00,57.6,41.1,29.89,North,354,1.0,3.0,54,0.00,,,0.00,Wunderground v.1.15,2013-05-05 08:15:00,
2013-05-05 03:16:00,57.6,41.1,29.89,North,354,1.0,3.0,54,0.00,,,0.00,Wunderground v.1.15,2013-05-05 08:16:00,
2013-05-05 03:18:00,57.6,41.1,29.89,North,354,1.0,1.0,54,0.00,,,0.00,Wunderground v.1.15,2013-05-05 08:18:00,
2013-05-05 03:20:00,57.6,40.6,29.89,North,354,1.0,2.0,53,0.00,,,0.00,Wunderground v.1.15,2013-05-05 08:20:00,
2013-05-05 03:23:00,57.6,40.6,29.89,North,353,2.0,3.0,53,0.00,,,0.00,Wunderground v.1.15,2013-05-05 08:23:00,
2013-05-05 03:25:00,57.6,41.1,29.89,North,353,2.0,3.0,54,0.00,,,0.00,Wunderground v.1.15,2013-05-05 08:25:00,
2013-05-05 03:30:00,57.6,40.6,29.89,North,353,1.0,1.0,53,0.00,,,0.00,Wunderground v.1.15,2013-05-05 08:30:00,
2013-05-05 03:31:00,57.6,40.6,29.89,North,353,1.0,1.0,53,0.00,,,0.00,Wunderground v.1.15,2013-05-05 08:31:00,
2013-05-05 03:32:00,57.6,40.1,29.89,North,353,1.0,1.0,52,0.00,,,0.00,Wunderground v.1.15,2013-05-05 08:32:00,
2013-05-05 03:35:00,57.8,40.3,29.89,North,353,1.0,1.0,52,0.00,,,0.00,Wunderground v.1.15,2013-05-05 08:35:00,
2013-05-05 03:39:00,57.8,40.3,29.89,North,353,1.0,1.0,52,0.00,,,0.00,Wunderground v.1.15,2013-05-05 08:39:00,
2013-05-05 03:40:00,58.0,40.5,29.89,North,353,1.0,1.0,52,0.00,,,0.00,Wunderground v.1.15,2013-05-05 08:40:00,
2013-05-05 03:41:00,58.0,40.5,29.89,North,353,1.0,1.0,52,0.00,,,0.00,Wunderground v.1.15,2013-05-05 08:41:00,
2013-05-05 03:45:00,58.0,40.5,29.89,North,353,1.0,3.0,52,0.00,,,0.00,Wunderground v.1.15,2013-05-05 08:45:00,
2013-05-05 03:48:00,58.0,40.5,29.89,North,353,1.0,2.0,52,0.00,,,0.00,Wunderground v.1.15,2013-05-05 08:48:00,
2013-05-05 03:51:00,57.8,40.3,29.89,North,353,2.0,3.0,52,0.00,,,0.00,Wunderground v.1.15,2013-05-05 08:51:00,
2013-05-05 03:52:00,58.0,40.5,29.89,North,353,2.0,3.0,52,0.00,,,0.00,Wunderground v.1.15,2013-05-05 08:52:00,
2013-05-05 03:54:00,58.0,40.5,29.89,North,353,2.0,3.0,52,0.00,,,0.00,Wunderground v.1.15,2013-05-05 08:54:00,
2013-05-05 03:58:00,58.0,40.5,29.89,North,353,2.0,2.0,52,0.00,,,0.00,Wunderground v.1.15,2013-05-05 08:58:00,
2013-05-05 03:59:00,58.0,40.0,29.89,North,353,2.0,3.0,51,0.00,,,0.00,Wunderground v.1.15,2013-05-05 08:59:00,
2013-05-05 04:01:00,58.1,40.1,29.89,North,352,2.0,3.0,51,0.00,,,0.00,Wunderground v.1.15,2013-05-05 09:01:00,
2013-05-05 04:02:00,58.1,39.5,29.89,North,353,2.0,3.0,50,0.00,,,0.00,Wunderground v.1.15,2013-05-05 09:02:00,
2013-05-05 04:03:00,58.3,39.7,29.89,North,353,2.0,3.0,50,0.00,,,0.00,Wunderground v.1.15,2013-05-05 09:03:00,
2013-05-05 04:05:00,58.4,38.8,29.89,North,353,2.0,3.0,48,0.00,,,0.00,Wunderground v.1.15,2013-05-05 09:05:00,
2013-05-05 04:06:00,58.6,39.0,29.89,North,353,2.0,3.0,48,0.00,,,0.00,Wunderground v.1.15,2013-05-05 09:06:00,
2013-05-05 04:08:00,58.9,38.1,29.89,North,354,2.0,3.0,46,0.00,,,0.00,Wunderground v.1.15,2013-05-05 09:08:00,
2013-05-05 04:11:00,59.3,37.9,29.89,North,354,2.0,3.0,45,0.00,,,0.00,Wunderground v.1.15,2013-05-05 09:11:00,
2013-05-05 04:12:00,59.5,37.6,29.89,North,354,2.0,3.0,44,0.00,,,0.00,Wunderground v.1.15,2013-05-05 09:12:00,
2013-05-05 04:13:00,59.6,37.6,29.89,North,353,3.0,3.0,44,0.00,,,0.00,Wunderground v.1.15,2013-05-05 09:13:00,
2013-05-05 04:16:00,60.1,37.5,29.89,North,6,3.0,5.0,43,0.00,,,0.00,Wunderground v.1.15,2013-05-05 09:16:00,
2013-05-05 04:19:00,60.2,37.0,29.89,North,6,3.0,5.0,42,0.00,,,0.00,Wunderground v.1.15,2013-05-05 09:19:00,
2013-05-05 04:21:00,60.4,37.2,29.89,North,3,3.0,5.0,42,0.00,,,0.00,Wunderground v.1.15,2013-05-05 09:21:00,
2013-05-05 04:22:00,60.4,37.2,29.89,North,4,3.0,5.0,42,0.00,,,0.00,Wunderground v.1.15,2013-05-05 09:22:00,
2013-05-05 04:25:00,60.4,37.2,29.89,North,3,2.0,5.0,42,0.00,,,0.00,Wunderground v.1.15,2013-05-05 09:25:00,
2013-05-05 04:28:00,60.4,37.2,29.89,North,3,2.0,2.0,42,0.00,,,0.00,Wunderground v.1.15,2013-05-05 09:28:00,
2013-05-05 04:29:00,60.4,37.2,29.89,North,3,2.0,3.0,42,0.00,,,0.00,Wunderground v.1.15,2013-05-05 09:29:00,
2013-05-05 04:33:00,60.1,38.1,29.89,North,0,1.0,3.0,44,0.00,,,0.00,Wunderground v.1.15,2013-05-05 09:33:00,
2013-05-05 04:34:00,59.9,38.5,29.89,North,0,1.0,3.0,45,0.00,,,0.00,Wunderground v.1.15,2013-05-05 09:34:00,
2013-05-05 04:35:00,59.8,38.4,29.89,North,0,1.0,3.0,45,0.00,,,0.00,Wunderground v.1.15,2013-05-05 09:35:00,
2013-05-05 04:36:00,59.6,38.2,29.89,North,0,2.0,3.0,45,0.00,,,0.00,Wunderground v.1.15,2013-05-05 09:36:00,
2013-05-05 04:39:00,59.2,39.0,29.89,North,0,2.0,3.0,47,0.00,,,0.00,Wunderground v.1.15,2013-05-05 09:39:00,
2013-05-05 04:40:00,59.0,38.8,29.89,NNW,346,2.0,3.0,47,0.00,,,0.00,Wunderground v.1.15,2013-05-05 09:40:00,
2013-05-05 04:42:00,58.6,39.0,29.89,NNW,346,2.0,4.0,48,0.00,,,0.00,Wunderground v.1.15,2013-05-05 09:42:00,
2013-05-05 04:45:00,58.1,39.0,29.89,NNW,346,2.0,4.0,49,0.00,,,0.00,Wunderground v.1.15,2013-05-05 09:45:00,
2013-05-05 04:46:00,58.0,38.9,29.90,NNW,335,2.0,4.0,49,0.00,,,0.00,Wunderground v.1.15,2013-05-05 09:46:00,
2013-05-05 04:48:00,57.6,38.6,29.90,NNW,329,2.0,3.0,49,0.00,,,0.00,Wunderground v.1.15,2013-05-05 09:48:00,
2013-05-05 04:50:00,57.3,38.3,29.90,NNW,339,2.0,5.0,49,0.00,,,0.00,Wunderground v.1.15,2013-05-05 09:50:00,
2013-05-05 04:51:00,57.2,38.7,29.90,NNW,340,2.0,5.0,50,0.00,,,0.00,Wunderground v.1.15,2013-05-05 09:51:00,
2013-05-05 04:53:00,57.0,38.5,29.90,NNW,342,3.0,5.0,50,0.00,,,0.00,Wunderground v.1.15,2013-05-05 09:53:00,
2013-05-05 04:58:00,56.6,38.7,29.90,NNW,340,3.0,5.0,51,0.00,,,0.00,Wunderground v.1.15,2013-05-05 09:58:00,
2013-05-05 04:59:00,56.6,38.7,29.90,NNW,343,3.0,6.0,51,0.00,,,0.00,Wunderground v.1.15,2013-05-05 09:59:00,
2013-05-05 05:00:00,56.5,38.6,29.90,NNW,333,3.0,6.0,51,0.00,,,0.00,Wunderground v.1.15,2013-05-05 10:00:00,
2013-05-05 05:01:00,56.5,38.6,29.91,NNW,346,3.0,6.0,51,0.00,,,0.00,Wunderground v.1.15,2013-05-05 10:01:00,
2013-05-05 05:02:00,56.5,38.6,29.91,NNW,340,3.0,6.0,51,0.00,,,0.00,Wunderground v.1.15,2013-05-05 10:02:00,
2013-05-05 05:06:00,56.3,37.9,29.91,North,352,3.0,6.0,50,0.00,,,0.00,Wunderground v.1.15,2013-05-05 10:06:00,
2013-05-05 05:08:00,56.3,37.9,29.91,North,356,4.0,5.0,50,0.00,,,0.00,Wunderground v.1.15,2013-05-05 10:08:00,
2013-05-05 05:11:00,56.3,37.9,29.91,North,352,4.0,6.0,50,0.00,,,0.00,Wunderground v.1.15,2013-05-05 10:11:00,
2013-05-05 05:12:00,56.3,37.4,29.91,North,357,4.0,8.0,49,0.00,,,0.00,Wunderground v.1.15,2013-05-05 10:12:00,
2013-05-05 05:15:00,56.5,37.6,29.91,North,0,5.0,8.0,49,0.00,,,0.00,Wunderground v.1.15,2013-05-05 10:15:00,
2013-05-05 05:16:00,56.5,37.0,29.91,North,353,5.0,8.0,48,0.00,,,0.00,Wunderground v.1.15,2013-05-05 10:16:00,
2013-05-05 05:18:00,56.6,37.1,29.91,North,359,5.0,5.0,48,0.00,,,0.00,Wunderground v.1.15,2013-05-05 10:18:00,
2013-05-05 05:22:00,56.7,37.2,29.91,North,0,5.0,8.0,48,0.00,,,0.00,Wunderground v.1.15,2013-05-05 10:22:00,
2013-05-05 05:23:00,56.7,37.2,29.91,North,359,5.0,8.0,48,0.00,,,0.00,Wunderground v.1.15,2013-05-05 10:23:00,
2013-05-05 05:25:00,56.7,37.2,29.91,NNE,21,5.0,8.0,48,0.00,,,0.00,Wunderground v.1.15,2013-05-05 10:25:00,
2013-05-05 05:26:00,56.7,37.2,29.91,NNW,337,5.0,8.0,48,0.00,,,0.00,Wunderground v.1.15,2013-05-05 10:26:00,
2013-05-05 05:29:00,56.7,36.7,29.91,North,0,5.0,8.0,47,0.00,,,0.00,Wunderground v.1.15,2013-05-05 10:29:00,
2013-05-05 05:30:00,56.9,36.9,29.91,North,0,5.0,8.0,47,0.00,,,0.00,Wunderground v.1.15,2013-05-05 10:30:00,
2013-05-05 05:31:00,56.9,36.9,29.91,NNE,28,5.0,8.0,47,0.00,,,0.00,Wunderground v.1.15,2013-05-05 10:31:00,
2013-05-05 05:34:00,56.9,36.9,29.91,North,0,5.0,8.0,47,0.00,,,0.00,Wunderground v.1.15,2013-05-05 10:34:00,
2013-05-05 05:36:00,57.0,37.0,29.91,North,8,5.0,8.0,47,0.00,,,0.00,Wunderground v.1.15,2013-05-05 10:36:00,
2013-05-05 05:38:00,57.0,36.4,29.91,NNW,337,6.0,6.0,46,0.00,,,0.00,Wunderground v.1.15,2013-05-05 10:38:00,
2013-05-05 05:39:00,57.0,37.0,29.91,NNE,31,6.0,6.0,47,0.00,,,0.00,Wunderground v.1.15,2013-05-05 10:39:00,
2013-05-05 05:40:00,57.0,36.4,29.91,NNE,32,6.0,6.0,46,0.00,,,0.00,Wunderground v.1.15,2013-05-05 10:40:00,
2013-05-05 05:41:00,57.0,36.4,29.91,North,0,6.0,6.0,46,0.00,,,0.00,Wunderground v.1.15,2013-05-05 10:41:00,
2013-05-05 05:43:00,57.0,36.4,29.91,NNE,16,5.0,6.0,46,0.00,,,0.00,Wunderground v.1.15,2013-05-05 10:43:00,
2013-05-05 05:45:00,57.0,36.4,29.91,North,359,5.0,7.0,46,0.00,,,0.00,Wunderground v.1.15,2013-05-05 10:45:00,
2013-05-05 05:49:00,57.0,36.4,29.92,North,6,6.0,6.0,46,0.00,,,0.00,Wunderground v.1.15,2013-05-05 10:49:00,
2013-05-05 05:51:00,56.9,36.3,29.92,North,0,6.0,6.0,46,0.00,,,0.00,Wunderground v.1.15,2013-05-05 10:51:00,
2013-05-05 05:53:00,56.9,36.9,29.92,North,0,6.0,8.0,47,0.00,,,0.00,Wunderground v.1.15,2013-05-05 10:53:00,
2013-05-05 05:54:00,56.7,36.7,29.92,North,354,6.0,12.0,47,0.00,,,0.00,Wunderground v.1.15,2013-05-05 10:54:00,
2013-05-05 05:55:00,56.7,36.7,29.92,North,3,6.0,12.0,47,0.00,,,0.00,Wunderground v.1.15,2013-05-05 10:55:00,
2013-05-05 05:56:00,56.6,36.6,29.92,North,1,6.0,12.0,47,0.00,,,0.00,Wunderground v.1.15,2013-05-05 10:56:00,
2013-05-05 05:58:00,56.6,36.6,29.92,North,0,6.0,10.0,47,0.00,,,0.00,Wunderground v.1.15,2013-05-05 10:58:00,
2013-05-05 06:02:00,56.3,36.3,29.92,NNW,347,6.0,10.0,47,0.00,,,0.00,Wunderground v.1.15,2013-05-05 11:02:00,
2013-05-05 06:04:00,56.2,36.2,29.92,North,350,7.0,10.0,47,0.00,,,0.00,Wunderground v.1.15,2013-05-05 11:04:00,
2013-05-05 06:06:00,56.0,36.6,29.92,NNE,27,7.0,10.0,48,0.00,,,0.00,Wunderground v.1.15,2013-05-05 11:06:00,
2013-05-05 06:08:00,56.0,36.6,29.92,NNE,25,7.0,7.0,48,0.00,,,0.00,Wunderground v.1.15,2013-05-05 11:08:00,
2013-05-05 06:10:00,55.9,36.5,29.92,NNE,25,7.0,10.0,48,0.00,,,0.00,Wunderground v.1.15,2013-05-05 11:10:00,
2013-05-05 06:11:00,55.7,36.3,29.92,North,0,7.0,10.0,48,0.00,,,0.00,Wunderground v.1.15,2013-05-05 11:11:00,
2013-05-05 06:13:00,55.6,36.2,29.92,North,356,7.0,11.0,48,0.00,,,0.00,Wunderground v.1.15,2013-05-05 11:13:00,
2013-05-05 06:18:00,55.3,37.0,29.94,NNE,17,6.0,6.0,50,0.00,,,0.00,Wunderground v.1.15,2013-05-05 11:18:00,
2013-05-05 06:19:00,55.1,36.8,29.94,North,0,6.0,7.0,50,0.00,,,0.00,Wunderground v.1.15,2013-05-05 11:19:00,
2013-05-05 06:20:00,55.0,36.7,29.94,NNE,14,6.0,8.0,50,0.00,,,0.00,Wunderground v.1.15,2013-05-05 11:20:00,
2013-05-05 06:23:00,54.8,36.5,29.94,NNE,23,6.0,8.0,50,0.00,,,0.00,Wunderground v.1.15,2013-05-05 11:23:00,
2013-05-05 06:25:00,54.8,37.0,29.94,NNE,17,6.0,11.0,51,0.00,,,0.00,Wunderground v.1.15,2013-05-05 11:25:00,
2013-05-05 06:28:00,54.4,36.6,29.94,NNE,31,7.0,7.0,51,0.00,,,0.00,Wunderground v.1.15,2013-05-05 11:28:00,
2013-05-05 06:30:00,54.2,36.9,29.94,North,0,7.0,7.0,52,0.00,,,0.00,Wunderground v.1.15,2013-05-05 11:30:00,
2013-05-05 06:33:00,54.1,36.9,29.95,ENE,59,6.0,7.0,52,0.00,,,0.00,Wunderground v.1.15,2013-05-05 11:33:00,
2013-05-05 06:35:00,53.9,36.7,29.95,North,7,6.0,7.0,52,0.00,,,0.00,Wunderground v.1.15,2013-05-05 11:35:00,
2013-05-05 06:36:00,53.9,36.7,29.95,North,357,6.0,7.0,52,0.00,,,0.00,Wunderground v.1.15,2013-05-05 11:36:00,
2013-05-05 06:38:00,53.8,36.6,29.95,NE,34,5.0,5.0,52,0.00,,,0.00,Wunderground v.1.15,2013-05-05 11:38:00,
2013-05-05 06:39:00,53.8,36.6,29.95,North,10,5.0,10.0,52,0.00,,,0.00,Wunderground v.1.15,2013-05-05 11:39:00,
2013-05-05 06:42:00,53.5,36.8,29.95,NNE,18,5.0,10.0,53,0.00,,,0.00,Wunderground v.1.15,2013-05-05 11:42:00,
2013-05-05 06:44:00,53.5,36.8,29.95,NNE,16,4.0,10.0,53,0.00,,,0.00,Wunderground v.1.15,2013-05-05 11:44:00,
2013-05-05 06:46:00,53.3,36.6,29.96,NE,37,5.0,10.0,53,0.00,,,0.00,Wunderground v.1.15,2013-05-05 11:46:00,
2013-05-05 06:48:00,53.3,36.6,29.96,North,0,5.0,6.0,53,0.00,,,0.00,Wunderground v.1.15,2013-05-05 11:48:00,
2013-05-05 06:50:00,53.2,37.0,29.96,NNE,30,5.0,6.0,54,0.00,,,0.00,Wunderground v.1.15,2013-05-05 11:50:00,
2013-05-05 06:51:00,53.2,37.0,29.96,NNE,32,4.0,8.0,54,0.00,,,0.00,Wunderground v.1.15,2013-05-05 11:51:00,
2013-05-05 06:52:00,53.2,37.0,29.96,NNE,16,5.0,8.0,54,0.00,,,0.00,Wunderground v.1.15,2013-05-05 11:52:00,
2013-05-05 06:54:00,53.1,36.9,29.96,NE,47,5.0,8.0,54,0.00,,,0.00,Wunderground v.1.15,2013-05-05 11:54:00,
2013-05-05 06:56:00,53.1,36.9,29.96,NNE,21,5.0,8.0,54,0.00,,,0.00,Wunderground v.1.15,2013-05-05 11:56:00,
2013-05-05 06:58:00,52.9,36.7,29.96,NNE,16,5.0,5.0,54,0.00,,,0.00,Wunderground v.1.15,2013-05-05 11:58:00,
2013-05-05 07:01:00,52.9,36.7,29.97,NNE,25,5.0,8.0,54,0.00,,,0.00,Wunderground v.1.15,2013-05-05 12:01:00,
2013-05-05 07:03:00,52.8,36.6,29.97,NNE,14,5.0,8.0,54,0.00,,,0.00,Wunderground v.1.15,2013-05-05 12:03:00,
2013-05-05 07:04:00,52.8,36.6,29.97,NE,47,5.0,8.0,54,0.00,,,0.00,Wunderground v.1.15,2013-05-05 12:04:00,
2013-05-05 07:08:00,52.8,36.6,29.97,NNE,16,6.0,6.0,54,0.00,,,0.00,Wunderground v.1.15,2013-05-05 12:08:00,
2013-05-05 07:09:00,52.8,36.6,29.97,NE,48,6.0,6.0,54,0.00,,,0.00,Wunderground v.1.15,2013-05-05 12:09:00,
2013-05-05 07:11:00,52.8,37.1,29.97,North,0,5.0,6.0,55,0.00,,,0.00,Wunderground v.1.15,2013-05-05 12:11:00,
2013-05-05 07:13:00,52.8,37.1,29.97,NNE,14,5.0,6.0,55,0.00,,,0.00,Wunderground v.1.15,2013-05-05 12:13:00,
2013-05-05 07:15:00,52.9,37.2,29.97,NE,34,5.0,6.0,55,0.00,,,0.00,Wunderground v.1.15,2013-05-05 12:15:00,
2013-05-05 07:16:00,52.9,37.2,29.98,NNE,16,5.0,6.0,55,0.00,,,0.00,Wunderground v.1.15,2013-05-05 12:16:00,
2013-05-05 07:18:00,52.9,37.2,29.98,North,7,5.0,7.0,55,0.00,,,0.00,Wunderground v.1.15,2013-05-05 12:18:00,
2013-05-05 07:20:00,53.1,37.3,29.98,North,0,5.0,9.0,55,0.00,,,0.00,Wunderground v.1.15,2013-05-05 12:20:00,
2013-05-05 07:21:00,53.1,37.3,29.98,NNE,31,5.0,9.0,55,0.00,,,0.00,Wunderground v.1.15,2013-05-05 12:21:00,
2013-05-05 07:23:00,53.1,37.3,29.98,NE,47,5.0,9.0,55,0.00,,,0.00,Wunderground v.1.15,2013-05-05 12:23:00,
2013-05-05 07:26:00,53.2,37.4,29.98,NNE,20,5.0,9.0,55,0.00,,,0.00,Wunderground v.1.15,2013-05-05 12:26:00,
2013-05-05 07:28:00,53.2,37.0,29.98,NNE,32,5.0,8.0,54,0.00,,,0.00,Wunderground v.1.15,2013-05-05 12:28:00,
2013-05-05 07:29:00,53.2,37.4,29.98,NNE,20,5.0,8.0,55,0.00,,,0.00,Wunderground v.1.15,2013-05-05 12:29:00,
2013-05-05 07:33:00,53.2,37.4,30.00,NNE,21,5.0,8.0,55,0.00,,,0.00,Wunderground v.1.15,2013-05-05 12:33:00,
2013-05-05 07:34:00,53.2,37.4,30.00,NNE,18,5.0,8.0,55,0.00,,,0.00,Wunderground v.1.15,2013-05-05 12:34:00,
2013-05-05 07:38:00,53.3,37.5,30.00,NNE,20,5.0,7.0,55,0.00,,,0.00,Wunderground v.1.15,2013-05-05 12:38:00,
2013-05-05 07:39:00,53.3,37.5,30.00,North,359,5.0,8.0,55,0.00,,,0.00,Wunderground v.1.15,2013-05-05 12:39:00,
2013-05-05 07:41:00,53.3,37.5,30.00,NE,34,6.0,8.0,55,0.00,,,0.00,Wunderground v.1.15,2013-05-05 12:41:00,
2013-05-05 07:42:00,53.3,37.5,30.00,NNE,23,6.0,8.0,55,0.00,,,0.00,Wunderground v.1.15,2013-05-05 12:42:00,
2013-05-05 07:44:00,53.3,37.5,30.00,North,6,6.0,8.0,55,0.00,,,0.00,Wunderground v.1.15,2013-05-05 12:44:00,
2013-05-05 07:45:00,53.5,37.7,30.00,NNE,31,6.0,8.0,55,0.00,,,0.00,Wunderground v.1.15,2013-05-05 12:45:00,
2013-05-05 07:48:00,53.5,37.7,30.00,North,359,7.0,7.0,55,0.00,,,0.00,Wunderground v.1.15,2013-05-05 12:48:00,
2013-05-05 07:50:00,53.5,37.7,30.00,NNW,337,6.0,7.0,55,0.00,,,0.00,Wunderground v.1.15,2013-05-05 12:50:00,
2013-05-05 07:53:00,53.6,37.8,30.00,NNW,347,7.0,8.0,55,0.00,,,0.00,Wunderground v.1.15,2013-05-05 12:53:00,
2013-05-05 07:56:00,53.8,38.5,30.00,NNE,28,6.0,8.0,56,0.00,,,0.00,Wunderground v.1.15,2013-05-05 12:56:00,
2013-05-05 07:58:00,53.8,38.0,30.00,NE,35,6.0,11.0,55,0.00,,,0.00,Wunderground v.1.15,2013-05-05 12:58:00,
2013-05-05 08:01:00,53.9,38.1,30.01,North,8,6.0,11.0,55,0.00,,,0.00,Wunderground v.1.15,2013-05-05 13:01:00,
2013-05-05 08:02:00,53.9,38.1,30.01,North,359,6.0,11.0,55,0.00,,,0.00,Wunderground v.1.15,2013-05-05 13:02:00,
2013-05-05 08:05:00,54.1,38.3,30.01,North,0,7.0,11.0,55,0.00,,,0.00,Wunderground v.1.15,2013-05-05 13:05:00,
2013-05-05 08:06:00,54.1,38.3,30.01,North,359,7.0,11.0,55,0.00,,,0.00,Wunderground v.1.15,2013-05-05 13:06:00,
2013-05-05 08:09:00,54.2,38.4,30.01,NNE,31,6.0,7.0,55,0.00,,,0.00,Wunderground v.1.15,2013-05-05 13:09:00,
2013-05-05 08:10:00,54.4,38.6,30.01,North,1,7.0,7.0,55,0.00,,,0.00,Wunderground v.1.15,2013-05-05 13:10:00,
2013-05-05 08:11:00,54.4,38.6,30.01,North,0,6.0,7.0,55,0.00,,,0.00,Wunderground v.1.15,2013-05-05 13:11:00,
2013-05-05 08:13:00,54.5,38.7,30.01,NNE,32,6.0,7.0,55,0.00,,,0.00,Wunderground v.1.15,2013-05-05 13:13:00,
2013-05-05 08:15:00,54.7,38.8,30.01,NNE,30,7.0,11.0,55,0.00,,,0.00,Wunderground v.1.15,2013-05-05 13:15:00,
2013-05-05 08:19:00,54.8,38.9,30.01,NE,45,7.0,7.0,55,0.00,,,0.00,Wunderground v.1.15,2013-05-05 13:19:00,
2013-05-05 08:20:00,54.8,38.9,30.01,North,357,7.0,8.0,55,0.00,,,0.00,Wunderground v.1.15,2013-05-05 13:20:00,
2013-05-05 08:21:00,54.8,38.5,30.01,NW,326,7.0,8.0,54,0.00,,,0.00,Wunderground v.1.15,2013-05-05 13:21:00,
2013-05-05 08:22:00,55.0,38.6,30.01,North,0,7.0,11.0,54,0.00,,,0.00,Wunderground v.1.15,2013-05-05 13:22:00,
2013-05-05 08:24:00,55.0,38.6,30.01,North,350,7.0,11.0,54,0.00,,,0.00,Wunderground v.1.15,2013-05-05 13:24:00,
2013-05-05 08:28:00,55.1,38.7,30.01,North,0,7.0,7.0,54,0.00,,,0.00,Wunderground v.1.15,2013-05-05 13:28:00,
2013-05-05 08:29:00,55.3,38.9,30.01,North,354,7.0,7.0,54,0.00,,,0.00,Wunderground v.1.15,2013-05-05 13:29:00,
2013-05-05 08:30:00,55.3,38.9,30.01,North,352,7.0,7.0,54,0.00,,,0.00,Wunderground v.1.15,2013-05-05 13:30:00,
2013-05-05 08:32:00,55.4,39.0,30.02,NNW,339,7.0,10.0,54,0.00,,,0.00,Wunderground v.1.15,2013-05-05 13:32:00,
2013-05-05 08:33:00,55.6,38.7,30.02,NNE,16,7.0,10.0,53,0.00,,,0.00,Wunderground v.1.15,2013-05-05 13:33:00,
2013-05-05 08:34:00,55.6,39.2,30.02,NNW,339,7.0,10.0,54,0.00,,,0.00,Wunderground v.1.15,2013-05-05 13:34:00,
2013-05-05 08:36:00,55.7,38.8,30.02,NE,37,6.0,10.0,53,0.00,,,0.00,Wunderground v.1.15,2013-05-05 13:36:00,
2013-05-05 08:38:00,55.9,39.0,30.02,NNE,14,6.0,6.0,53,0.00,,,0.00,Wunderground v.1.15,2013-05-05 13:38:00,
2013-05-05 08:39:00,55.9,39.5,30.02,NNE,32,6.0,7.0,54,0.00,,,0.00,Wunderground v.1.15,2013-05-05 13:39:00,
2013-05-05 08:40:00,56.0,39.1,30.02,North,6,6.0,7.0,53,0.00,,,0.00,Wunderground v.1.15,2013-05-05 13:40:00,
2013-05-05 08:41:00,56.0,38.6,30.02,North,0,7.0,7.0,52,0.00,,,0.00,Wunderground v.1.15,2013-05-05 13:41:00,
2013-05-05 08:43:00,56.2,38.8,30.02,North,0,6.0,7.0,52,0.00,,,0.00,Wunderground v.1.15,2013-05-05 13:43:00,
2013-05-05 08:45:00,56.2,38.8,30.02,North,4,7.0,8.0,52,0.00,,,0.00,Wunderground v.1.15,2013-05-05 13:45:00,
2013-05-05 08:48:00,56.5,39.1,30.03,North,11,7.0,8.0,52,0.00,,,0.00,Wunderground v.1.15,2013-05-05 13:48:00,
2013-05-05 08:50:00,56.5,39.1,30.03,NNE,30,7.0,8.0,52,0.00,,,0.00,Wunderground v.1.15,2013-05-05 13:50:00,
2013-05-05 08:52:00,56.7,39.3,30.03,North,11,7.0,8.0,52,0.00,,,0.00,Wunderground v.1.15,2013-05-05 13:52:00,
2013-05-05 08:54:00,56.9,39.4,30.03,NE,42,6.0,8.0,52,0.00,,,0.00,Wunderground v.1.15,2013-05-05 13:54:00,
2013-05-05 08:56:00,57.0,39.0,30.03,NNE,17,6.0,9.0,51,0.00,,,0.00,Wunderground v.1.15,2013-05-05 13:56:00,
2013-05-05 08:57:00,57.2,39.2,30.03,NE,40,7.0,7.0,51,0.00,,,0.00,Wunderground v.1.15,2013-05-05 13:57:00,
2013-05-05 08:59:00,57.2,39.2,30.03,NNE,27,7.0,10.0,51,0.00,,,0.00,Wunderground v.1.15,2013-05-05 13:59:00,
2013-05-05 09:02:00,57.3,38.8,30.02,North,0,7.0,10.0,50,0.00,,,0.00,Wunderground v.1.15,2013-05-05 14:02:00,
2013-05-05 09:03:00,57.5,39.5,30.02,NNE,16,7.0,10.0,51,0.00,,,0.00,Wunderground v.1.15,2013-05-05 14:03:00,
2013-05-05 09:07:00,57.8,39.3,30.02,NNE,18,7.0,7.0,50,0.00,,,0.00,Wunderground v.1.15,2013-05-05 14:07:00,
2013-05-05 09:08:00,58.0,39.5,30.02,North,8,7.0,7.0,50,0.00,,,0.00,Wunderground v.1.15,2013-05-05 14:08:00,
2013-05-05 09:10:00,58.1,39.0,30.02,NE,47,7.0,9.0,49,0.00,,,0.00,Wunderground v.1.15,2013-05-05 14:10:00,
2013-05-05 09:11:00,58.3,39.2,30.02,NE,35,6.0,9.0,49,0.00,,,0.00,Wunderground v.1.15,2013-05-05 14:11:00,
2013-05-05 09:12:00,58.3,38.7,30.02,NNE,31,6.0,9.0,48,0.00,,,0.00,Wunderground v.1.15,2013-05-05 14:12:00,
2013-05-05 09:13:00,58.4,38.8,30.02,NE,37,6.0,12.0,48,0.00,,,0.00,Wunderground v.1.15,2013-05-05 14:13:00,
2013-05-05 09:16:00,58.6,39.0,30.03,NNE,14,6.0,12.0,48,0.00,,,0.00,Wunderground v.1.15,2013-05-05 14:16:00,
2013-05-05 09:17:00,58.7,39.0,30.03,NNE,21,6.0,12.0,48,0.00,,,0.00,Wunderground v.1.15,2013-05-05 14:17:00,
2013-05-05 09:19:00,58.7,39.0,30.03,NNE,13,6.0,6.0,48,0.00,,,0.00,Wunderground v.1.15,2013-05-05 14:19:00,
2013-05-05 09:23:00,59.3,39.6,30.03,North,350,6.0,7.0,48,0.00,,,0.00,Wunderground v.1.15,2013-05-05 14:23:00,
2013-05-05 09:25:00,59.3,39.6,30.03,North,349,6.0,7.0,48,0.00,,,0.00,Wunderground v.1.15,2013-05-05 14:25:00,
2013-05-05 09:26:00,59.5,39.8,30.03,NNE,24,5.0,7.0,48,0.00,,,0.00,Wunderground v.1.15,2013-05-05 14:26:00,
2013-05-05 09:29:00,59.6,39.3,30.03,NNE,24,6.0,6.0,47,0.00,,,0.00,Wunderground v.1.15,2013-05-05 14:29:00,
2013-05-05 09:31:00,59.8,40.1,30.03,NNE,31,6.0,10.0,48,0.00,,,0.00,Wunderground v.1.15,2013-05-05 14:31:00,
2013-05-05 09:32:00,59.9,39.6,30.03,North,0,6.0,10.0,47,0.00,,,0.00,Wunderground v.1.15,2013-05-05 14:32:00,
2013-05-05 09:33:00,60.1,39.2,30.03,NE,34,6.0,10.0,46,0.00,,,0.00,Wunderground v.1.15,2013-05-05 14:33:00,
2013-05-05 09:35:00,60.1,38.7,30.03,North,0,6.0,10.0,45,0.00,,,0.00,Wunderground v.1.15,2013-05-05 14:35:00,
2013-05-05 09:39:00,60.5,40.2,30.03,North,11,5.0,5.0,47,0.00,,,0.00,Wunderground v.1.15,2013-05-05 14:39:00,
2013-05-05 09:43:00,60.9,40.0,30.03,NE,48,5.0,6.0,46,0.00,,,0.00,Wunderground v.1.15,2013-05-05 14:43:00,
2013-05-05 09:44:00,60.9,38.8,30.03,NE,40,5.0,8.0,44,0.00,,,0.00,Wunderground v.1.15,2013-05-05 14:44:00,
2013-05-05 09:45:00,60.7,38.6,30.03,NE,54,5.0,8.0,44,0.00,,,0.00,Wunderground v.1.15,2013-05-05 14:45:00,
2013-05-05 09:49:00,60.9,39.4,30.04,NE,49,6.0,7.0,45,0.00,,,0.00,Wunderground v.1.15,2013-05-05 14:49:00,
2013-05-05 09:50:00,60.9,39.4,30.04,North,357,7.0,7.0,45,0.00,,,0.00,Wunderground v.1.15,2013-05-05 14:50:00,
2013-05-05 09:51:00,60.9,39.4,30.04,NNE,25,7.0,8.0,45,0.00,,,0.00,Wunderground v.1.15,2013-05-05 14:51:00,
2013-05-05 09:52:00,61.0,39.5,30.04,North,356,7.0,8.0,45,0.00,,,0.00,Wunderground v.1.15,2013-05-05 14:52:00,
2013-05-05 09:55:00,61.3,39.8,30.04,NNE,30,6.0,8.0,45,0.00,,,0.00,Wunderground v.1.15,2013-05-05 14:55:00,
2013-05-05 09:56:00,61.3,39.2,30.04,NW,326,6.0,8.0,44,0.00,,,0.00,Wunderground v.1.15,2013-05-05 14:56:00,
2013-05-05 09:57:00,61.5,39.9,30.04,NE,34,6.0,8.0,45,0.00,,,0.00,Wunderground v.1.15,2013-05-05 14:57:00,
2013-05-05 09:59:00,61.5,39.4,30.04,North,349,5.0,5.0,44,0.00,,,0.00,Wunderground v.1.15,2013-05-05 14:59:00,
2013-05-05 10:02:00,61.6,40.0,30.04,NNE,27,5.0,7.0,45,0.00,,,0.00,Wunderground v.1.15,2013-05-05 15:02:00,
2013-05-05 10:04:00,61.8,40.2,30.04,North,6,5.0,7.0,45,0.00,,,0.00,Wunderground v.1.15,2013-05-05 15:04:00,
2013-05-05 10:06:00,61.8,39.6,30.04,NNE,27,6.0,8.0,44,0.00,,,0.00,Wunderground v.1.15,2013-05-05 15:06:00,
2013-05-05 10:07:00,62.0,39.8,30.04,North,353,6.0,8.0,44,0.00,,,0.00,Wunderground v.1.15,2013-05-05 15:07:00,
2013-05-05 10:10:00,62.1,39.9,30.04,NE,37,6.0,7.0,44,0.00,,,0.00,Wunderground v.1.15,2013-05-05 15:10:00,
2013-05-05 10:13:00,62.6,40.9,30.04,North,0,5.0,7.0,45,0.00,,,0.00,Wunderground v.1.15,2013-05-05 15:13:00,
2013-05-05 10:14:00,62.7,40.5,30.04,NNW,333,5.0,7.0,44,0.00,,,0.00,Wunderground v.1.15,2013-05-05 15:14:00,
2013-05-05 10:16:00,62.9,40.6,30.04,ENE,59,4.0,7.0,44,0.00,,,0.00,Wunderground v.1.15,2013-05-05 15:16:00,
2013-05-05 10:19:00,63.1,40.2,30.04,NE,52,5.0,6.0,43,0.00,,,0.00,Wunderground v.1.15,2013-05-05 15:19:00,
2013-05-05 10:20:00,63.1,40.2,30.04,NE,42,5.0,6.0,43,0.00,,,0.00,Wunderground v.1.15,2013-05-05 15:20:00,
2013-05-05 10:23:00,63.1,40.2,30.04,North,357,5.0,8.0,43,0.00,,,0.00,Wunderground v.1.15,2013-05-05 15:23:00,
2013-05-05 10:24:00,63.1,40.8,30.04,North,349,5.0,8.0,44,0.00,,,0.00,Wunderground v.1.15,2013-05-05 15:24:00,
2013-05-05 10:25:00,63.2,40.3,30.04,NW,316,5.0,8.0,43,0.00,,,0.00,Wunderground v.1.15,2013-05-05 15:25:00,
2013-05-05 10:30:00,63.5,40.0,30.04,NNW,329,5.0,5.0,42,0.00,,,0.00,Wunderground v.1.15,2013-05-05 15:30:00,
2013-05-05 10:32:00,63.7,40.2,30.04,NNW,343,5.0,7.0,42,0.00,,,0.00,Wunderground v.1.15,2013-05-05 15:32:00,
2013-05-05 10:33:00,63.7,39.5,30.04,NNW,330,5.0,8.0,41,0.00,,,0.00,Wunderground v.1.15,2013-05-05 15:33:00,
2013-05-05 10:36:00,63.7,39.5,30.04,NNW,339,5.0,10.0,41,0.00,,,0.00,Wunderground v.1.15,2013-05-05 15:36:00,
2013-05-05 10:38:00,63.9,40.3,30.04,North,0,6.0,10.0,42,0.00,,,0.00,Wunderground v.1.15,2013-05-05 15:38:00,
2013-05-05 10:41:00,64.0,39.8,30.04,NE,37,6.0,6.0,41,0.00,,,0.00,Wunderground v.1.15,2013-05-05 15:41:00,
2013-05-05 10:45:00,64.3,40.1,30.04,North,8,5.0,6.0,41,0.00,,,0.00,Wunderground v.1.15,2013-05-05 15:45:00,
2013-05-05 10:46:00,64.3,39.4,30.04,NNE,23,5.0,10.0,40,0.00,,,0.00,Wunderground v.1.15,2013-05-05 15:46:00,
2013-05-05 10:48:00,64.3,38.8,30.04,NNE,30,5.0,10.0,39,0.00,,,0.00,Wunderground v.1.15,2013-05-05 15:48:00,
2013-05-05 10:49:00,64.5,39.0,30.04,NNW,329,5.0,10.0,39,0.00,,,0.00,Wunderground v.1.15,2013-05-05 15:49:00,
2013-05-05 10:51:00,64.5,39.6,30.04,NNW,329,5.0,5.0,40,0.00,,,0.00,Wunderground v.1.15,2013-05-05 15:51:00,
2013-05-05 10:55:00,64.8,39.2,30.04,WNW,287,5.0,6.0,39,0.00,,,0.00,Wunderground v.1.15,2013-05-05 15:55:00,
2013-05-05 10:56:00,64.8,39.9,30.04,NW,315,5.0,6.0,40,0.00,,,0.00,Wunderground v.1.15,2013-05-05 15:56:00,
2013-05-05 11:01:00,65.2,39.6,30.04,NNW,336,5.0,5.0,39,0.00,,,0.00,Wunderground v.1.15,2013-05-05 16:01:00,
2013-05-05 11:02:00,65.2,40.3,30.04,NW,322,5.0,5.0,40,0.00,,,0.00,Wunderground v.1.15,2013-05-05 16:02:00,
2013-05-05 11:03:00,65.3,39.7,30.04,North,0,5.0,6.0,39,0.00,,,0.00,Wunderground v.1.15,2013-05-05 16:03:00,
2013-05-05 11:04:00,65.3,39.7,30.04,North,359,5.0,6.0,39,0.00,,,0.00,Wunderground v.1.15,2013-05-05 16:04:00,
2013-05-05 11:08:00,65.3,39.0,30.04,North,359,5.0,8.0,38,0.00,,,0.00,Wunderground v.1.15,2013-05-05 16:08:00,
2013-05-05 11:11:00,65.5,39.9,30.04,NNE,31,4.0,5.0,39,0.00,,,0.00,Wunderground v.1.15,2013-05-05 16:11:00,
2013-05-05 11:14:00,65.8,39.5,30.04,NNW,342,4.0,8.0,38,0.00,,,0.00,Wunderground v.1.15,2013-05-05 16:14:00,
2013-05-05 11:15:00,66.0,39.7,30.04,NE,40,4.0,11.0,38,0.00,,,0.00,Wunderground v.1.15,2013-05-05 16:15:00,
2013-05-05 11:16:00,66.0,39.7,30.04,North,0,4.0,11.0,38,0.00,,,0.00,Wunderground v.1.15,2013-05-05 16:16:00,
2013-05-05 11:19:00,66.0,39.0,30.05,NE,52,5.0,11.0,37,0.00,,,0.00,Wunderground v.1.15,2013-05-05 16:19:00,
2013-05-05 11:21:00,66.0,39.7,30.05,North,11,5.0,6.0,38,0.00,,,0.00,Wunderground v.1.15,2013-05-05 16:21:00,
2013-05-05 11:24:00,66.3,39.9,30.05,NE,42,6.0,7.0,38,0.00,,,0.00,Wunderground v.1.15,2013-05-05 16:24:00,
2013-05-05 11:27:00,66.3,39.2,30.05,NNE,28,6.0,8.0,37,0.00,,,0.00,Wunderground v.1.15,2013-05-05 16:27:00,
2013-05-05 11:29:00,66.4,39.3,30.05,North,354,6.0,8.0,37,0.00,,,0.00,Wunderground v.1.15,2013-05-05 16:29:00,
2013-05-05 11:31:00,66.4,38.6,30.05,NNW,339,6.0,8.0,36,0.00,,,0.00,Wunderground v.1.15,2013-05-05 16:31:00,
2013-05-05 11:34:00,66.3,39.2,30.06,North,4,6.0,8.0,37,0.00,,,0.00,Wunderground v.1.15,2013-05-05 16:34:00,
2013-05-05 11:36:00,66.4,39.3,30.06,North,356,6.0,8.0,37,0.00,,,0.00,Wunderground v.1.15,2013-05-05 16:36:00,
2013-05-05 11:37:00,66.4,39.3,30.06,NNW,347,6.0,8.0,37,0.00,,,0.00,Wunderground v.1.15,2013-05-05 16:37:00,
2013-05-05 11:42:00,66.6,38.8,30.06,NNW,328,6.0,6.0,36,0.00,,,0.00,Wunderground v.1.15,2013-05-05 16:42:00,
2013-05-05 11:43:00,66.6,39.5,30.06,North,349,6.0,6.0,37,0.00,,,0.00,Wunderground v.1.15,2013-05-05 16:43:00,
2013-05-05 11:44:00,66.8,39.0,30.06,North,3,6.0,10.0,36,0.00,,,0.00,Wunderground v.1.15,2013-05-05 16:44:00,
2013-05-05 11:48:00,66.9,38.3,30.05,North,353,6.0,10.0,35,0.00,,,0.00,Wunderground v.1.15,2013-05-05 16:48:00,
2013-05-05 11:49:00,66.9,39.1,30.05,NW,325,6.0,10.0,36,0.00,,,0.00,Wunderground v.1.15,2013-05-05 16:49:00,
2013-05-05 11:51:00,67.1,39.9,30.05,NW,304,6.0,6.0,37,0.00,,,0.00,Wunderground v.1.15,2013-05-05 16:51:00,
2013-05-05 11:56:00,67.3,40.1,30.05,WNW,301,4.0,6.0,37,0.00,,,0.00,Wunderground v.1.15,2013-05-05 16:56:00,
2013-05-05 11:57:00,67.4,40.2,30.05,North,0,4.0,6.0,37,0.00,,,0.00,Wunderground v.1.15,2013-05-05 16:57:00,
2013-05-05 12:02:00,67.8,38.4,30.05,NW,316,5.0,7.0,34,0.00,,,0.00,Wunderground v.1.15,2013-05-05 17:02:00,
2013-05-05 12:03:00,67.9,38.5,30.05,North,356,5.0,7.0,34,0.00,,,0.00,Wunderground v.1.15,2013-05-05 17:03:00,
2013-05-05 12:07:00,67.9,39.2,30.05,NW,312,6.0,7.0,35,0.00,,,0.00,Wunderground v.1.15,2013-05-05 17:07:00,
2013-05-05 12:08:00,68.1,39.4,30.05,North,0,6.0,7.0,35,0.00,,,0.00,Wunderground v.1.15,2013-05-05 17:08:00,
2013-05-05 12:10:00,68.3,39.6,30.05,NW,311,5.0,5.0,35,0.00,,,0.00,Wunderground v.1.15,2013-05-05 17:10:00,
2013-05-05 12:13:00,68.4,39.7,30.05,NW,312,5.0,8.0,35,0.00,,,0.00,Wunderground v.1.15,2013-05-05 17:13:00,
2013-05-05 12:15:00,68.4,39.7,30.05,North,0,5.0,8.0,35,0.00,,,0.00,Wunderground v.1.15,2013-05-05 17:15:00,
2013-05-05 12:17:00,68.6,39.1,30.05,NW,320,5.0,10.0,34,0.00,,,0.00,Wunderground v.1.15,2013-05-05 17:17:00,
2013-05-05 12:19:00,68.6,39.8,30.05,NW,315,5.0,10.0,35,0.00,,,0.00,Wunderground v.1.15,2013-05-05 17:19:00,
2013-05-05 12:21:00,68.6,39.1,30.05,North,10,5.0,5.0,34,0.00,,,0.00,Wunderground v.1.15,2013-05-05 17:21:00,
2013-05-05 12:23:00,68.8,40.0,30.05,NNW,328,5.0,10.0,35,0.00,,,0.00,Wunderground v.1.15,2013-05-05 17:23:00,
2013-05-05 12:25:00,68.9,37.8,30.05,NNE,17,4.0,10.0,32,0.00,,,0.00,Wunderground v.1.15,2013-05-05 17:25:00,
2013-05-05 12:28:00,68.9,38.6,30.05,NE,41,4.0,10.0,33,0.00,,,0.00,Wunderground v.1.15,2013-05-05 17:28:00,
2013-05-05 12:29:00,68.9,38.6,30.05,North,352,5.0,10.0,33,0.00,,,0.00,Wunderground v.1.15,2013-05-05 17:29:00,
2013-05-05 12:30:00,68.8,39.3,30.05,NNE,20,5.0,5.0,34,0.00,,,0.00,Wunderground v.1.15,2013-05-05 17:30:00,
2013-05-05 12:32:00,68.8,39.3,30.04,NNE,20,5.0,5.0,34,0.00,,,0.00,Wunderground v.1.15,2013-05-05 17:32:00,
2013-05-05 12:34:00,68.9,40.1,30.04,East,96,5.0,5.0,35,0.00,,,0.00,Wunderground v.1.15,2013-05-05 17:34:00,
2013-05-05 12:35:00,69.1,39.5,30.04,NNE,17,5.0,11.0,34,0.00,,,0.00,Wunderground v.1.15,2013-05-05 17:35:00,
2013-05-05 12:37:00,69.3,38.9,30.04,NW,318,6.0,11.0,33,0.00,,,0.00,Wunderground v.1.15,2013-05-05 17:37:00,
2013-05-05 12:39:00,69.3,38.2,30.04,North,11,6.0,11.0,32,0.00,,,0.00,Wunderground v.1.15,2013-05-05 17:39:00,
2013-05-05 12:41:00,69.3,38.9,30.04,NNE,25,5.0,5.0,33,0.00,,,0.00,Wunderground v.1.15,2013-05-05 17:41:00,
2013-05-05 12:43:00,69.4,37.4,30.04,North,0,6.0,7.0,31,0.00,,,0.00,Wunderground v.1.15,2013-05-05 17:43:00,
2013-05-05 12:45:00,69.6,39.2,30.04,NNW,344,6.0,7.0,33,0.00,,,0.00,Wunderground v.1.15,2013-05-05 17:45:00,
2013-05-05 12:47:00,70.1,38.9,30.03,NNW,342,5.0,7.0,32,0.00,,,0.00,Wunderground v.1.15,2013-05-05 17:47:00,
2013-05-05 12:48:00,70.3,39.0,30.03,NNE,17,4.0,7.0,32,0.00,,,0.00,Wunderground v.1.15,2013-05-05 17:48:00,
2013-05-05 12:49:00,70.4,39.1,30.03,North,357,4.0,7.0,32,0.00,,,0.00,Wunderground v.1.15,2013-05-05 17:49:00,
2013-05-05 12:54:00,70.1,38.0,30.03,NNE,21,6.0,8.0,31,0.00,,,0.00,Wunderground v.1.15,2013-05-05 17:54:00,
2013-05-05 12:55:00,70.1,38.9,30.03,NNE,27,5.0,8.0,32,0.00,,,0.00,Wunderground v.1.15,2013-05-05 17:55:00,
2013-05-05 12:56:00,70.1,38.0,30.03,NNE,27,5.0,8.0,31,0.00,,,0.00,Wunderground v.1.15,2013-05-05 17:56:00,
2013-05-05 12:57:00,69.9,37.9,30.03,NNE,27,5.0,8.0,31,0.00,,,0.00,Wunderground v.1.15,2013-05-05 17:57:00,
2013-05-05 13:01:00,70.3,39.8,30.03,NNE,30,4.0,10.0,33,0.00,,,0.00,Wunderground v.1.15,2013-05-05 18:01:00,
2013-05-05 13:02:00,70.3,38.2,30.02,North,353,4.0,12.0,31,0.00,,,0.00,Wunderground v.1.15,2013-05-05 18:02:00,
2013-05-05 13:03:00,70.4,39.1,30.02,NW,308,5.0,12.0,32,0.00,,,0.00,Wunderground v.1.15,2013-05-05 18:03:00,
2013-05-05 13:04:00,70.6,39.3,30.02,North,357,5.0,12.0,32,0.00,,,0.00,Wunderground v.1.15,2013-05-05 18:04:00,
2013-05-05 13:07:00,70.8,38.7,30.02,NNW,336,6.0,12.0,31,0.00,,,0.00,Wunderground v.1.15,2013-05-05 18:07:00,
2013-05-05 13:12:00,70.9,38.7,30.02,North,350,6.0,7.0,31,0.00,,,0.00,Wunderground v.1.15,2013-05-05 18:12:00,
2013-05-05 13:13:00,71.1,38.9,30.02,NE,45,6.0,10.0,31,0.00,,,0.00,Wunderground v.1.15,2013-05-05 18:13:00,
2013-05-05 13:16:00,71.1,38.9,30.02,NE,41,6.0,10.0,31,0.00,,,0.00,Wunderground v.1.15,2013-05-05 18:16:00,
2013-05-05 13:18:00,71.5,39.3,30.01,NNW,347,6.0,10.0,31,0.00,,,0.00,Wunderground v.1.15,2013-05-05 18:18:00,
2013-05-05 13:19:00,71.6,38.5,30.01,North,8,5.0,10.0,30,0.00,,,0.00,Wunderground v.1.15,2013-05-05 18:19:00,
2013-05-05 13:21:00,71.6,38.5,30.01,North,0,6.0,10.0,30,0.00,,,0.00,Wunderground v.1.15,2013-05-05 18:21:00,
2013-05-05 13:24:00,71.8,38.7,30.01,NE,34,6.0,10.0,30,0.00,,,0.00,Wunderground v.1.15,2013-05-05 18:24:00,
2013-05-05 13:27:00,72.0,39.7,30.01,NNW,328,6.0,10.0,31,0.00,,,0.00,Wunderground v.1.15,2013-05-05 18:27:00,
2013-05-05 13:28:00,72.1,38.9,30.01,North,354,6.0,10.0,30,0.00,,,0.00,Wunderground v.1.15,2013-05-05 18:28:00,
2013-05-05 13:31:00,72.5,39.3,30.01,NNW,333,6.0,6.0,30,0.00,,,0.00,Wunderground v.1.15,2013-05-05 18:31:00,
2013-05-05 13:33:00,72.8,39.5,30.00,WNW,299,5.0,6.0,30,0.00,,,0.00,Wunderground v.1.15,2013-05-05 18:33:00,
2013-05-05 13:35:00,73.0,38.0,30.00,NW,308,5.0,8.0,28,0.00,,,0.00,Wunderground v.1.15,2013-05-05 18:35:00,
2013-05-05 13:36:00,73.0,38.9,30.00,NW,322,5.0,8.0,29,0.00,,,0.00,Wunderground v.1.15,2013-05-05 18:36:00,
2013-05-05 13:41:00,73.0,38.0,30.00,NW,312,5.0,13.0,28,0.00,,,0.00,Wunderground v.1.15,2013-05-05 18:41:00,
2013-05-05 13:42:00,72.8,37.8,30.00,North,0,6.0,6.0,28,0.00,,,0.00,Wunderground v.1.15,2013-05-05 18:42:00,
2013-05-05 13:44:00,72.8,37.8,30.00,WNW,298,6.0,11.0,28,0.00,,,0.00,Wunderground v.1.15,2013-05-05 18:44:00,
2013-05-05 13:45:00,72.8,38.7,30.00,NW,315,7.0,11.0,29,0.00,,,0.00,Wunderground v.1.15,2013-05-05 18:45:00,
2013-05-05 13:46:00,72.8,37.8,30.00,NNW,339,7.0,11.0,28,0.00,,,0.00,Wunderground v.1.15,2013-05-05 18:46:00,
2013-05-05 13:47:00,72.8,36.9,29.99,North,359,7.0,11.0,27,0.00,,,0.00,Wunderground v.1.15,2013-05-05 18:47:00,
2013-05-05 13:51:00,72.8,38.7,29.99,NW,309,6.0,6.0,29,0.00,,,0.00,Wunderground v.1.15,2013-05-05 18:51:00,
2013-05-05 13:52:00,72.8,37.8,29.99,NNW,328,5.0,7.0,28,0.00,,,0.00,Wunderground v.1.15,2013-05-05 18:52:00,
2013-05-05 13:54:00,72.8,37.8,29.99,North,359,5.0,7.0,28,0.00,,,0.00,Wunderground v.1.15,2013-05-05 18:54:00,
2013-05-05 13:55:00,73.0,38.9,29.99,North,0,5.0,7.0,29,0.00,,,0.00,Wunderground v.1.15,2013-05-05 18:55:00,
2013-05-05 13:56:00,73.0,38.0,29.99,NE,34,5.0,7.0,28,0.00,,,0.00,Wunderground v.1.15,2013-05-05 18:56:00,
2013-05-05 13:58:00,73.2,37.2,29.99,North,352,5.0,7.0,27,0.00,,,0.00,Wunderground v.1.15,2013-05-05 18:58:00,
2013-05-05 13:59:00,73.2,38.1,29.99,NNW,335,5.0,7.0,28,0.00,,,0.00,Wunderground v.1.15,2013-05-05 18:59:00,
2013-05-05 14:01:00,73.3,38.2,29.99,North,4,5.0,5.0,28,0.00,,,0.00,Wunderground v.1.15,2013-05-05 19:01:00,
2013-05-05 14:02:00,73.5,37.5,29.99,NNE,17,5.0,12.0,27,0.00,,,0.00,Wunderground v.1.15,2013-05-05 19:02:00,
2013-05-05 14:05:00,73.9,38.7,29.99,North,356,5.0,12.0,28,0.00,,,0.00,Wunderground v.1.15,2013-05-05 19:05:00,
2013-05-05 14:06:00,74.0,38.8,29.99,NE,34,5.0,12.0,28,0.00,,,0.00,Wunderground v.1.15,2013-05-05 19:06:00,
2013-05-05 14:07:00,74.0,38.8,29.99,North,357,5.0,12.0,28,0.00,,,0.00,Wunderground v.1.15,2013-05-05 19:07:00,
2013-05-05 14:12:00,74.0,39.7,29.99,NNE,14,6.0,7.0,29,0.00,,,0.00,Wunderground v.1.15,2013-05-05 19:12:00,
2013-05-05 14:14:00,74.2,39.0,29.99,North,0,6.0,7.0,28,0.00,,,0.00,Wunderground v.1.15,2013-05-05 19:14:00,
2013-05-05 14:15:00,74.4,39.2,29.99,North,0,5.0,7.0,28,0.00,,,0.00,Wunderground v.1.15,2013-05-05 19:15:00,
2013-05-05 14:17:00,74.6,39.3,29.98,NW,311,5.0,10.0,28,0.00,,,0.00,Wunderground v.1.15,2013-05-05 19:17:00,
2013-05-05 14:19:00,74.7,38.5,29.98,NW,309,5.0,10.0,27,0.00,,,0.00,Wunderground v.1.15,2013-05-05 19:19:00,
2013-05-05 14:20:00,74.9,39.6,29.98,NW,325,5.0,10.0,28,0.00,,,0.00,Wunderground v.1.15,2013-05-05 19:20:00,
2013-05-05 14:22:00,74.9,39.6,29.98,NW,322,5.0,12.0,28,0.00,,,0.00,Wunderground v.1.15,2013-05-05 19:22:00,
2013-05-05 14:25:00,74.6,39.3,29.98,NW,323,7.0,12.0,28,0.00,,,0.00,Wunderground v.1.15,2013-05-05 19:25:00,
2013-05-05 14:26:00,74.6,39.3,29.98,NNW,347,7.0,12.0,28,0.00,,,0.00,Wunderground v.1.15,2013-05-05 19:26:00,
2013-05-05 14:27:00,74.6,38.4,29.98,West,268,7.0,12.0,27,0.00,,,0.00,Wunderground v.1.15,2013-05-05 19:27:00,
2013-05-05 14:28:00,74.6,39.3,29.98,NNW,333,7.0,12.0,28,0.00,,,0.00,Wunderground v.1.15,2013-05-05 19:28:00,
2013-05-05 14:31:00,74.4,39.2,29.98,NE,45,7.0,7.0,28,0.00,,,0.00,Wunderground v.1.15,2013-05-05 19:31:00,
2013-05-05 14:32:00,74.4,39.2,29.98,NE,48,7.0,7.0,28,0.00,,,0.00,Wunderground v.1.15,2013-05-05 19:32:00,
2013-05-05 14:34:00,74.4,39.2,29.98,NW,316,6.0,7.0,28,0.00,,,0.00,Wunderground v.1.15,2013-05-05 19:34:00,
2013-05-05 14:36:00,74.4,38.2,29.98,NNW,336,6.0,7.0,27,0.00,,,0.00,Wunderground v.1.15,2013-05-05 19:36:00,
2013-05-05 14:39:00,74.7,40.3,29.98,NNW,343,5.0,8.0,29,0.00,,,0.00,Wunderground v.1.15,2013-05-05 19:39:00,
2013-05-05 14:41:00,74.7,39.4,29.98,NW,304,5.0,8.0,28,0.00,,,0.00,Wunderground v.1.15,2013-05-05 19:41:00,
2013-05-05 14:44:00,74.9,38.7,29.98,North,11,6.0,10.0,27,0.00,,,0.00,Wunderground v.1.15,2013-05-05 19:44:00,
2013-05-05 14:48:00,75.3,39.9,29.97,NW,326,6.0,14.0,28,0.00,,,0.00,Wunderground v.1.15,2013-05-05 19:48:00,
2013-05-05 14:49:00,75.3,39.9,29.97,North,0,6.0,14.0,28,0.00,,,0.00,Wunderground v.1.15,2013-05-05 19:49:00,
2013-05-05 14:51:00,75.4,40.0,29.97,North,0,5.0,5.0,28,0.00,,,0.00,Wunderground v.1.15,2013-05-05 19:51:00,
2013-05-05 14:54:00,75.6,40.2,29.97,North,0,5.0,10.0,28,0.00,,,0.00,Wunderground v.1.15,2013-05-05 19:54:00,
2013-05-05 14:56:00,75.8,40.4,29.97,North,0,5.0,10.0,28,0.00,,,0.00,Wunderground v.1.15,2013-05-05 19:56:00,
2013-05-05 14:57:00,76.0,40.5,29.97,NNW,340,5.0,11.0,28,0.00,,,0.00,Wunderground v.1.15,2013-05-05 19:57:00,
2013-05-05 14:58:00,76.0,39.6,29.97,WNW,287,5.0,11.0,27,0.00,,,0.00,Wunderground v.1.15,2013-05-05 19:58:00,
2013-05-05 15:00:00,75.8,40.4,29.97,North,0,6.0,7.0,28,0.00,,,0.00,Wunderground v.1.15,2013-05-05 20:00:00,
2013-05-05 15:02:00,75.6,40.2,29.96,NW,325,7.0,7.0,28,0.00,,,0.00,Wunderground v.1.15,2013-05-05 20:02:00,
2013-05-05 15:05:00,75.6,40.2,29.96,NE,47,6.0,7.0,28,0.00,,,0.00,Wunderground v.1.15,2013-05-05 20:05:00,
2013-05-05 15:06:00,75.6,40.2,29.96,NE,41,6.0,7.0,28,0.00,,,0.00,Wunderground v.1.15,2013-05-05 20:06:00,
2013-05-05 15:07:00,75.6,39.2,29.96,NE,37,6.0,7.0,27,0.00,,,0.00,Wunderground v.1.15,2013-05-05 20:07:00,
2013-05-05 15:09:00,75.6,40.2,29.96,NNE,23,6.0,7.0,28,0.00,,,0.00,Wunderground v.1.15,2013-05-05 20:09:00,
2013-05-05 15:11:00,75.6,39.2,29.96,North,354,6.0,10.0,27,0.00,,,0.00,Wunderground v.1.15,2013-05-05 20:11:00,
2013-05-05 15:12:00,75.8,40.4,29.96,NE,45,5.0,10.0,28,0.00,,,0.00,Wunderground v.1.15,2013-05-05 20:12:00,
2013-05-05 15:13:00,75.8,40.4,29.96,North,8,5.0,10.0,28,0.00,,,0.00,Wunderground v.1.15,2013-05-05 20:13:00,
2013-05-05 15:15:00,76.0,40.5,29.96,NE,51,5.0,10.0,28,0.00,,,0.00,Wunderground v.1.15,2013-05-05 20:15:00,
2013-05-05 15:17:00,76.1,39.7,29.95,North,0,6.0,12.0,27,0.00,,,0.00,Wunderground v.1.15,2013-05-05 20:17:00,
2013-05-05 15:18:00,76.1,40.6,29.95,North,10,6.0,12.0,28,0.00,,,0.00,Wunderground v.1.15,2013-05-05 20:18:00,
2013-05-05 15:19:00,76.1,40.6,29.95,North,7,6.0,12.0,28,0.00,,,0.00,Wunderground v.1.15,2013-05-05 20:19:00,
2013-05-05 15:21:00,76.3,39.8,29.95,NW,313,6.0,14.0,27,0.00,,,0.00,Wunderground v.1.15,2013-05-05 20:21:00,
2013-05-05 15:24:00,76.5,41.0,29.95,NNW,343,6.0,14.0,28,0.00,,,0.00,Wunderground v.1.15,2013-05-05 20:24:00,
2013-05-05 15:25:00,76.7,41.1,29.95,North,8,6.0,14.0,28,0.00,,,0.00,Wunderground v.1.15,2013-05-05 20:25:00,
2013-05-05 15:26:00,76.8,41.2,29.95,WNW,298,6.0,14.0,28,0.00,,,0.00,Wunderground v.1.15,2013-05-05 20:26:00,
2013-05-05 15:27:00,76.8,40.3,29.95,WNW,298,6.0,14.0,27,0.00,,,0.00,Wunderground v.1.15,2013-05-05 20:27:00,
2013-05-05 15:31:00,77.2,39.6,29.95,NW,309,5.0,6.0,26,0.00,,,0.00,Wunderground v.1.15,2013-05-05 20:31:00,
2013-05-05 15:33:00,77.0,38.5,29.94,North,1,6.0,13.0,25,0.00,,,0.00,Wunderground v.1.15,2013-05-05 20:33:00,
2013-05-05 15:36:00,77.0,39.5,29.94,NE,42,7.0,13.0,26,0.00,,,0.00,Wunderground v.1.15,2013-05-05 20:36:00,
2013-05-05 15:37:00,77.0,39.5,29.94,NNE,31,7.0,13.0,26,0.00,,,0.00,Wunderground v.1.15,2013-05-05 20:37:00,
2013-05-05 15:39:00,76.8,39.3,29.94,North,7,7.0,13.0,26,0.00,,,0.00,Wunderground v.1.15,2013-05-05 20:39:00,
2013-05-05 15:41:00,77.0,39.5,29.94,North,357,7.0,7.0,26,0.00,,,0.00,Wunderground v.1.15,2013-05-05 20:41:00,
2013-05-05 15:44:00,76.8,39.3,29.94,NE,42,7.0,12.0,26,0.00,,,0.00,Wunderground v.1.15,2013-05-05 20:44:00,
2013-05-05 15:45:00,76.8,39.3,29.94,NNE,21,6.0,12.0,26,0.00,,,0.00,Wunderground v.1.15,2013-05-05 20:45:00,
2013-05-05 15:46:00,76.8,39.3,29.94,NNW,347,7.0,12.0,26,0.00,,,0.00,Wunderground v.1.15,2013-05-05 20:46:00,
2013-05-05 15:48:00,77.0,39.5,29.94,North,10,6.0,12.0,26,0.00,,,0.00,Wunderground v.1.15,2013-05-05 20:48:00,
2013-05-05 15:51:00,77.0,38.5,29.94,NE,41,7.0,12.0,25,0.00,,,0.00,Wunderground v.1.15,2013-05-05 20:51:00,
2013-05-05 15:52:00,77.0,37.4,29.94,North,357,7.0,7.0,24,0.00,,,0.00,Wunderground v.1.15,2013-05-05 20:52:00,
2013-05-05 15:53:00,77.0,38.5,29.94,NW,309,7.0,7.0,25,0.00,,,0.00,Wunderground v.1.15,2013-05-05 20:53:00,
2013-05-05 15:56:00,77.2,38.6,29.94,NW,318,6.0,10.0,25,0.00,,,0.00,Wunderground v.1.15,2013-05-05 20:56:00,
2013-05-05 15:58:00,77.4,37.8,29.94,NNW,332,7.0,10.0,24,0.00,,,0.00,Wunderground v.1.15,2013-05-05 20:58:00,
2013-05-05 15:59:00,77.4,38.8,29.94,NW,316,6.0,10.0,25,0.00,,,0.00,Wunderground v.1.15,2013-05-05 20:59:00,
2013-05-05 16:01:00,77.4,37.8,29.94,NNW,329,6.0,6.0,24,0.00,,,0.00,Wunderground v.1.15,2013-05-05 21:01:00,
2013-05-05 16:03:00,77.6,37.9,29.94,NW,305,6.0,6.0,24,0.00,,,0.00,Wunderground v.1.15,2013-05-05 21:03:00,
2013-05-05 16:05:00,77.6,37.9,29.94,WNW,302,6.0,11.0,24,0.00,,,0.00,Wunderground v.1.15,2013-05-05 21:05:00,
2013-05-05 16:07:00,77.6,37.9,29.94,North,357,7.0,11.0,24,0.00,,,0.00,Wunderground v.1.15,2013-05-05 21:07:00,
2013-05-05 16:08:00,77.6,37.9,29.94,NW,319,7.0,11.0,24,0.00,,,0.00,Wunderground v.1.15,2013-05-05 21:08:00,
2013-05-05 16:11:00,77.6,37.9,29.94,WNW,298,7.0,7.0,24,0.00,,,0.00,Wunderground v.1.15,2013-05-05 21:11:00,
2013-05-05 16:12:00,77.6,36.8,29.94,WNW,298,8.0,8.0,23,0.00,,,0.00,Wunderground v.1.15,2013-05-05 21:12:00,
2013-05-05 16:14:00,77.6,36.8,29.94,NW,305,9.0,14.0,23,0.00,,,0.00,Wunderground v.1.15,2013-05-05 21:14:00,
2013-05-05 16:17:00,77.6,37.9,29.93,NNE,21,8.0,14.0,24,0.00,,,0.00,Wunderground v.1.15,2013-05-05 21:17:00,
2013-05-05 16:18:00,77.6,37.9,29.93,NW,306,8.0,14.0,24,0.00,,,0.00,Wunderground v.1.15,2013-05-05 21:18:00,
2013-05-05 16:21:00,77.7,38.0,29.93,NNW,333,7.0,7.0,24,0.00,,,0.00,Wunderground v.1.15,2013-05-05 21:21:00,
2013-05-05 16:23:00,77.7,38.0,29.93,North,356,6.0,7.0,24,0.00,,,0.00,Wunderground v.1.15,2013-05-05 21:23:00,
2013-05-05 16:24:00,77.7,38.0,29.93,North,0,6.0,8.0,24,0.00,,,0.00,Wunderground v.1.15,2013-05-05 21:24:00,
2013-05-05 16:25:00,77.9,38.2,29.93,North,8,6.0,8.0,24,0.00,,,0.00,Wunderground v.1.15,2013-05-05 21:25:00,
2013-05-05 16:29:00,78.1,38.4,29.93,NNE,23,4.0,10.0,24,0.00,,,0.00,Wunderground v.1.15,2013-05-05 21:29:00,
2013-05-05 16:31:00,78.1,37.3,29.93,NNE,14,5.0,5.0,23,0.00,,,0.00,Wunderground v.1.15,2013-05-05 21:31:00,
2013-05-05 16:32:00,77.9,37.1,29.92,North,11,5.0,5.0,23,0.00,,,0.00,Wunderground v.1.15,2013-05-05 21:32:00,
2013-05-05 16:34:00,78.1,37.3,29.92,NNE,13,4.0,10.0,23,0.00,,,0.00,Wunderground v.1.15,2013-05-05 21:34:00,
2013-05-05 16:35:00,78.1,38.4,29.92,NE,55,5.0,10.0,24,0.00,,,0.00,Wunderground v.1.15,2013-05-05 21:35:00,
2013-05-05 16:38:00,78.3,38.5,29.92,NE,34,6.0,11.0,24,0.00,,,0.00,Wunderground v.1.15,2013-05-05 21:38:00,
2013-05-05 16:41:00,78.6,38.8,29.92,NNW,337,6.0,11.0,24,0.00,,,0.00,Wunderground v.1.15,2013-05-05 21:41:00,
2013-05-05 16:43:00,78.6,37.7,29.92,North,0,6.0,11.0,23,0.00,,,0.00,Wunderground v.1.15,2013-05-05 21:43:00,
2013-05-05 16:44:00,78.6,38.8,29.92,NNW,335,6.0,11.0,24,0.00,,,0.00,Wunderground v.1.15,2013-05-05 21:44:00,
2013-05-05 16:45:00,78.6,38.8,29.92,NNE,23,6.0,11.0,24,0.00,,,0.00,Wunderground v.1.15,2013-05-05 21:45:00,
2013-05-05 16:46:00,78.5,37.6,29.92,NNE,23,6.0,11.0,23,0.00,,,0.00,Wunderground v.1.15,2013-05-05 21:46:00,
2013-05-05 16:47:00,78.5,37.6,29.92,NNE,24,6.0,11.0,23,0.00,,,0.00,Wunderground v.1.15,2013-05-05 21:47:00,
2013-05-05 16:49:00,78.5,38.7,29.92,NW,323,4.0,11.0,24,0.00,,,0.00,Wunderground v.1.15,2013-05-05 21:49:00,
2013-05-05 16:52:00,78.6,37.7,29.92,North,0,4.0,8.0,23,0.00,,,0.00,Wunderground v.1.15,2013-05-05 21:52:00,
2013-05-05 16:53:00,78.8,37.9,29.92,NNW,333,4.0,8.0,23,0.00,,,0.00,Wunderground v.1.15,2013-05-05 21:53:00,
2013-05-05 16:54:00,78.8,38.9,29.92,North,359,4.0,8.0,24,0.00,,,0.00,Wunderground v.1.15,2013-05-05 21:54:00,
2013-05-05 16:55:00,79.0,38.0,29.92,North,352,4.0,8.0,23,0.00,,,0.00,Wunderground v.1.15,2013-05-05 21:55:00,
2013-05-05 16:59:00,78.8,36.7,29.92,NW,320,5.0,8.0,22,0.00,,,0.00,Wunderground v.1.15,2013-05-05 21:59:00,
2013-05-05 17:01:00,78.8,37.9,29.92,NW,308,6.0,6.0,23,0.00,,,0.00,Wunderground v.1.15,2013-05-05 22:01:00,
2013-05-05 17:02:00,79.0,39.1,29.92,North,8,5.0,7.0,24,0.00,,,0.00,Wunderground v.1.15,2013-05-05 22:02:00,
2013-05-05 17:03:00,79.0,38.0,29.92,NW,322,5.0,7.0,23,0.00,,,0.00,Wunderground v.1.15,2013-05-05 22:03:00,
2013-05-05 17:06:00,79.0,38.0,29.92,NW,320,6.0,10.0,23,0.00,,,0.00,Wunderground v.1.15,2013-05-05 22:06:00,
2013-05-05 17:08:00,78.8,37.9,29.92,NNW,335,6.0,10.0,23,0.00,,,0.00,Wunderground v.1.15,2013-05-05 22:08:00,
2013-05-05 17:09:00,78.6,37.7,29.92,NNW,330,6.0,10.0,23,0.00,,,0.00,Wunderground v.1.15,2013-05-05 22:09:00,
2013-05-05 17:11:00,78.6,37.7,29.92,NW,319,6.0,6.0,23,0.00,,,0.00,Wunderground v.1.15,2013-05-05 22:11:00,
2013-05-05 17:12:00,78.6,39.8,29.92,WNW,292,6.0,7.0,25,0.00,,,0.00,Wunderground v.1.15,2013-05-05 22:12:00,
2013-05-05 17:13:00,78.8,38.9,29.92,NNE,13,6.0,7.0,24,0.00,,,0.00,Wunderground v.1.15,2013-05-05 22:13:00,
2013-05-05 17:17:00,78.8,37.9,29.91,NNW,339,5.0,10.0,23,0.00,,,0.00,Wunderground v.1.15,2013-05-05 22:17:00,
2013-05-05 17:19:00,78.6,37.7,29.91,NNE,25,6.0,11.0,23,0.00,,,0.00,Wunderground v.1.15,2013-05-05 22:19:00,
2013-05-05 17:21:00,78.5,37.6,29.91,North,0,6.0,11.0,23,0.00,,,0.00,Wunderground v.1.15,2013-05-05 22:21:00,
2013-05-05 17:23:00,78.5,38.7,29.91,NW,319,7.0,11.0,24,0.00,,,0.00,Wunderground v.1.15,2013-05-05 22:23:00,
2013-05-05 17:24:00,78.5,38.7,29.91,NW,311,7.0,11.0,24,0.00,,,0.00,Wunderground v.1.15,2013-05-05 22:24:00,
2013-05-05 17:25:00,78.6,38.8,29.91,NNW,346,7.0,11.0,24,0.00,,,0.00,Wunderground v.1.15,2013-05-05 22:25:00,
2013-05-05 17:26:00,78.6,38.8,29.91,North,0,7.0,11.0,24,0.00,,,0.00,Wunderground v.1.15,2013-05-05 22:26:00,
2013-05-05 17:31:00,78.6,39.8,29.91,NW,306,6.0,6.0,25,0.00,,,0.00,Wunderground v.1.15,2013-05-05 22:31:00,
2013-05-05 17:32:00,78.6,38.8,29.91,North,353,6.0,6.0,24,0.00,,,0.00,Wunderground v.1.15,2013-05-05 22:32:00,
2013-05-05 17:35:00,78.6,38.8,29.91,NE,35,5.0,6.0,24,0.00,,,0.00,Wunderground v.1.15,2013-05-05 22:35:00,
2013-05-05 17:36:00,78.5,38.7,29.91,NNE,31,5.0,6.0,24,0.00,,,0.00,Wunderground v.1.15,2013-05-05 22:36:00,
2013-05-05 17:39:00,78.5,38.7,29.91,NNW,347,5.0,13.0,24,0.00,,,0.00,Wunderground v.1.15,2013-05-05 22:39:00,
2013-05-05 17:41:00,78.6,37.7,29.91,NW,312,5.0,7.0,23,0.00,,,0.00,Wunderground v.1.15,2013-05-05 22:41:00,
2013-05-05 17:43:00,78.6,37.7,29.91,North,352,6.0,7.0,23,0.00,,,0.00,Wunderground v.1.15,2013-05-05 22:43:00,
2013-05-05 17:46:00,78.5,37.6,29.91,NW,323,7.0,7.0,23,0.00,,,0.00,Wunderground v.1.15,2013-05-05 22:46:00,
2013-05-05 17:47:00,78.5,37.6,29.91,WNW,302,7.0,9.0,23,0.00,,,0.00,Wunderground v.1.15,2013-05-05 22:47:00,
2013-05-05 17:48:00,78.5,37.6,29.91,WNW,302,7.0,9.0,23,0.00,,,0.00,Wunderground v.1.15,2013-05-05 22:48:00,
2013-05-05 17:49:00,78.5,38.7,29.91,NW,316,7.0,11.0,24,0.00,,,0.00,Wunderground v.1.15,2013-05-05 22:49:00,
2013-05-05 17:52:00,78.3,37.4,29.91,NW,312,7.0,7.0,23,0.00,,,0.00,Wunderground v.1.15,2013-05-05 22:52:00,
2013-05-05 17:53:00,78.3,37.4,29.91,NNW,330,7.0,7.0,23,0.00,,,0.00,Wunderground v.1.15,2013-05-05 22:53:00,
2013-05-05 17:54:00,78.3,38.5,29.91,NNW,330,6.0,7.0,24,0.00,,,0.00,Wunderground v.1.15,2013-05-05 22:54:00,
2013-05-05 17:55:00,78.5,37.6,29.91,NNW,330,6.0,7.0,23,0.00,,,0.00,Wunderground v.1.15,2013-05-05 22:55:00,
2013-05-05 17:57:00,78.5,37.6,29.91,NW,313,6.0,8.0,23,0.00,,,0.00,Wunderground v.1.15,2013-05-05 22:57:00,
2013-05-05 18:01:00,78.5,37.6,29.91,NNW,332,5.0,5.0,23,0.00,,,0.00,Wunderground v.1.15,2013-05-05 23:01:00,
2013-05-05 18:02:00,78.5,37.6,29.91,WNW,302,5.0,6.0,23,0.00,,,0.00,Wunderground v.1.15,2013-05-05 23:02:00,
2013-05-05 18:03:00,78.5,37.6,29.91,NW,319,5.0,8.0,23,0.00,,,0.00,Wunderground v.1.15,2013-05-05 23:03:00,
2013-05-05 18:07:00,78.5,37.6,29.91,NW,319,7.0,9.0,23,0.00,,,0.00,Wunderground v.1.15,2013-05-05 23:07:00,
2013-05-05 18:08:00,78.5,36.5,29.91,NNW,342,7.0,9.0,22,0.00,,,0.00,Wunderground v.1.15,2013-05-05 23:08:00,
2013-05-05 18:09:00,78.5,37.6,29.91,NW,313,6.0,9.0,23,0.00,,,0.00,Wunderground v.1.15,2013-05-05 23:09:00,
2013-05-05 18:11:00,78.5,37.6,29.91,NNW,332,6.0,6.0,23,0.00,,,0.00,Wunderground v.1.15,2013-05-05 23:11:00,
2013-05-05 18:12:00,78.6,37.7,29.91,NNW,344,6.0,6.0,23,0.00,,,0.00,Wunderground v.1.15,2013-05-05 23:12:00,
2013-05-05 18:13:00,78.6,37.7,29.91,NE,47,5.0,6.0,23,0.00,,,0.00,Wunderground v.1.15,2013-05-05 23:13:00,
2013-05-05 18:17:00,78.6,37.7,29.91,North,356,4.0,7.0,23,0.00,,,0.00,Wunderground v.1.15,2013-05-05 23:17:00,
2013-05-05 18:18:00,78.6,37.7,29.91,NNW,328,4.0,7.0,23,0.00,,,0.00,Wunderground v.1.15,2013-05-05 23:18:00,
2013-05-05 18:21:00,78.6,37.7,29.91,NE,35,5.0,5.0,23,0.00,,,0.00,Wunderground v.1.15,2013-05-05 23:21:00,
2013-05-05 18:24:00,78.5,38.7,29.91,North,10,5.0,5.0,24,0.00,,,0.00,Wunderground v.1.15,2013-05-05 23:24:00,
2013-05-05 18:25:00,78.5,37.6,29.91,North,353,4.0,5.0,23,0.00,,,0.00,Wunderground v.1.15,2013-05-05 23:25:00,
2013-05-05 18:27:00,78.5,38.7,29.91,NE,35,4.0,5.0,24,0.00,,,0.00,Wunderground v.1.15,2013-05-05 23:27:00,
2013-05-05 18:29:00,78.5,38.7,29.91,North,0,4.0,5.0,24,0.00,,,0.00,Wunderground v.1.15,2013-05-05 23:29:00,
2013-05-05 18:31:00,78.6,39.8,29.91,North,10,3.0,5.0,25,0.00,,,0.00,Wunderground v.1.15,2013-05-05 23:31:00,
2013-05-05 18:32:00,78.6,37.7,29.91,NW,323,3.0,6.0,23,0.00,,,0.00,Wunderground v.1.15,2013-05-05 23:32:00,
2013-05-05 18:34:00,78.6,37.7,29.91,NNW,329,4.0,6.0,23,0.00,,,0.00,Wunderground v.1.15,2013-05-05 23:34:00,
2013-05-05 18:35:00,78.6,37.7,29.91,NW,325,4.0,6.0,23,0.00,,,0.00,Wunderground v.1.15,2013-05-05 23:35:00,
2013-05-05 18:36:00,78.8,37.9,29.91,NNW,347,4.0,6.0,23,0.00,,,0.00,Wunderground v.1.15,2013-05-05 23:36:00,
2013-05-05 18:37:00,78.8,37.9,29.91,NNE,24,4.0,6.0,23,0.00,,,0.00,Wunderground v.1.15,2013-05-05 23:37:00,
2013-05-05 18:39:00,78.6,37.7,29.91,North,8,5.0,8.0,23,0.00,,,0.00,Wunderground v.1.15,2013-05-05 23:39:00,
2013-05-05 18:41:00,78.6,38.8,29.91,North,354,5.0,5.0,24,0.00,,,0.00,Wunderground v.1.15,2013-05-05 23:41:00,
2013-05-05 18:43:00,78.5,38.7,29.91,NNW,344,5.0,6.0,24,0.00,,,0.00,Wunderground v.1.15,2013-05-05 23:43:00,
2013-05-05 18:45:00,78.5,38.7,29.91,NW,313,5.0,6.0,24,0.00,,,0.00,Wunderground v.1.15,2013-05-05 23:45:00,
2013-05-05 18:48:00,78.6,39.8,29.91,NW,304,5.0,6.0,25,0.00,,,0.00,Wunderground v.1.15,2013-05-05 23:48:00,
2013-05-05 18:49:00,78.6,38.8,29.91,WNW,301,4.0,7.0,24,0.00,,,0.00,Wunderground v.1.15,2013-05-05 23:49:00,
2013-05-05 18:51:00,78.6,37.7,29.91,NW,309,4.0,4.0,23,0.00,,,0.00,Wunderground v.1.15,2013-05-05 23:51:00,
2013-05-05 18:53:00,78.6,38.8,29.91,NW,316,4.0,4.0,24,0.00,,,0.00,Wunderground v.1.15,2013-05-05 23:53:00,
2013-05-05 18:54:00,78.6,38.8,29.91,WNW,299,4.0,4.0,24,0.00,,,0.00,Wunderground v.1.15,2013-05-05 23:54:00,
2013-05-05 18:56:00,78.6,38.8,29.91,NNW,339,4.0,5.0,24,0.00,,,0.00,Wunderground v.1.15,2013-05-05 23:56:00,
2013-05-05 18:57:00,78.6,38.8,29.91,NNW,339,4.0,5.0,24,0.00,,,0.00,Wunderground v.1.15,2013-05-05 23:57:00,
2013-05-05 18:59:00,78.6,38.8,29.91,NNE,17,4.0,10.0,24,0.00,,,0.00,Wunderground v.1.15,2013-05-05 23:59:00,
2013-05-05 19:01:00,78.6,38.8,29.91,NNE,16,4.0,7.0,24,0.00,,,0.00,Wunderground v.1.15,2013-05-06 00:01:00,
2013-05-05 19:02:00,78.6,38.8,29.91,North,356,4.0,7.0,24,0.00,,,0.00,Wunderground v.1.15,2013-05-06 00:02:00,
2013-05-05 19:04:00,78.5,38.7,29.91,North,0,4.0,7.0,24,0.00,,,0.00,Wunderground v.1.15,2013-05-06 00:04:00,
2013-05-05 19:07:00,78.5,38.7,29.91,North,6,4.0,7.0,24,0.00,,,0.00,Wunderground v.1.15,2013-05-06 00:07:00,
2013-05-05 19:09:00,78.5,39.7,29.91,NNE,16,4.0,7.0,25,0.00,,,0.00,Wunderground v.1.15,2013-05-06 00:09:00,
2013-05-05 19:11:00,78.3,38.5,29.91,North,359,4.0,5.0,24,0.00,,,0.00,Wunderground v.1.15,2013-05-06 00:11:00,
2013-05-05 19:16:00,78.1,38.4,29.91,North,7,4.0,6.0,24,0.00,,,0.00,Wunderground v.1.15,2013-05-06 00:16:00,
2013-05-05 19:17:00,78.1,38.4,29.91,North,6,3.0,6.0,24,0.00,,,0.00,Wunderground v.1.15,2013-05-06 00:17:00,
2013-05-05 19:19:00,78.1,39.4,29.91,NNE,30,3.0,6.0,25,0.00,,,0.00,Wunderground v.1.15,2013-05-06 00:19:00,
2013-05-05 19:21:00,77.9,40.2,29.91,North,352,3.0,3.0,26,0.00,,,0.00,Wunderground v.1.15,2013-05-06 00:21:00,
2013-05-05 19:24:00,77.9,40.2,29.91,NNE,21,3.0,3.0,26,0.00,,,0.00,Wunderground v.1.15,2013-05-06 00:24:00,
2013-05-05 19:25:00,77.7,40.1,29.91,North,359,3.0,3.0,26,0.00,,,0.00,Wunderground v.1.15,2013-05-06 00:25:00,
2013-05-05 19:26:00,77.7,40.1,29.91,NNW,347,3.0,5.0,26,0.00,,,0.00,Wunderground v.1.15,2013-05-06 00:26:00,
2013-05-05 19:29:00,77.7,40.1,29.91,NNW,346,2.0,5.0,26,0.00,,,0.00,Wunderground v.1.15,2013-05-06 00:29:00,
2013-05-05 19:30:00,77.9,40.2,29.91,NNW,333,2.0,5.0,26,0.00,,,0.00,Wunderground v.1.15,2013-05-06 00:30:00,
2013-05-05 19:31:00,77.9,40.2,29.91,NNW,333,2.0,4.0,26,0.00,,,0.00,Wunderground v.1.15,2013-05-06 00:31:00,
2013-05-05 19:32:00,77.9,40.2,29.91,North,349,2.0,4.0,26,0.00,,,0.00,Wunderground v.1.15,2013-05-06 00:32:00,
2013-05-05 19:33:00,77.7,40.1,29.91,North,359,2.0,4.0,26,0.00,,,0.00,Wunderground v.1.15,2013-05-06 00:33:00,
2013-05-05 19:36:00,77.6,40.0,29.91,North,0,3.0,6.0,26,0.00,,,0.00,Wunderground v.1.15,2013-05-06 00:36:00,
2013-05-05 19:37:00,77.6,40.0,29.91,North,0,3.0,6.0,26,0.00,,,0.00,Wunderground v.1.15,2013-05-06 00:37:00,
2013-05-05 19:38:00,77.6,40.0,29.91,North,0,3.0,6.0,26,0.00,,,0.00,Wunderground v.1.15,2013-05-06 00:38:00,
2013-05-05 19:39:00,77.6,40.0,29.91,North,359,3.0,6.0,26,0.00,,,0.00,Wunderground v.1.15,2013-05-06 00:39:00,
2013-05-05 19:42:00,77.4,40.8,29.91,North,359,3.0,5.0,27,0.00,,,0.00,Wunderground v.1.15,2013-05-06 00:42:00,
2013-05-05 19:45:00,77.2,41.6,29.91,NNE,32,3.0,5.0,28,0.00,,,0.00,Wunderground v.1.15,2013-05-06 00:45:00,
2013-05-05 19:47:00,77.0,41.4,29.92,NNE,32,3.0,5.0,28,0.00,,,0.00,Wunderground v.1.15,2013-05-06 00:47:00,
2013-05-05 19:49:00,76.7,42.0,29.92,ENE,73,3.0,5.0,29,0.00,,,0.00,Wunderground v.1.15,2013-05-06 00:49:00,
2013-05-05 19:50:00,76.5,41.9,29.92,NE,49,3.0,5.0,29,0.00,,,0.00,Wunderground v.1.15,2013-05-06 00:50:00,
2013-05-05 19:52:00,76.3,42.6,29.92,NE,52,3.0,6.0,30,0.00,,,0.00,Wunderground v.1.15,2013-05-06 00:52:00,
2013-05-05 19:53:00,76.1,42.4,29.92,NE,54,3.0,6.0,30,0.00,,,0.00,Wunderground v.1.15,2013-05-06 00:53:00,
2013-05-05 19:55:00,76.0,43.2,29.92,NNE,27,3.0,6.0,31,0.00,,,0.00,Wunderground v.1.15,2013-05-06 00:55:00,
2013-05-05 19:59:00,75.6,43.7,29.92,NNE,28,2.0,6.0,32,0.00,,,0.00,Wunderground v.1.15,2013-05-06 00:59:00,
2013-05-05 20:00:00,75.4,44.3,29.92,NE,42,2.0,2.0,33,0.00,,,0.00,Wunderground v.1.15,2013-05-06 01:00:00,
2013-05-05 20:01:00,75.4,44.3,29.92,NE,42,2.0,2.0,33,0.00,,,0.00,Wunderground v.1.15,2013-05-06 01:01:00,
2013-05-05 20:06:00,74.7,44.5,29.92,ENE,61,1.0,3.0,34,0.00,,,0.00,Wunderground v.1.15,2013-05-06 01:06:00,
2013-05-05 20:07:00,74.7,45.2,29.92,ENE,61,1.0,3.0,35,0.00,,,0.00,Wunderground v.1.15,2013-05-06 01:07:00,
2013-05-05 20:11:00,74.2,44.8,29.92,NE,48,1.0,3.0,35,0.00,,,0.00,Wunderground v.1.15,2013-05-06 01:11:00,
2013-05-05 20:13:00,74.0,44.6,29.92,NE,48,1.0,3.0,35,0.00,,,0.00,Wunderground v.1.15,2013-05-06 01:13:00,
2013-05-05 20:16:00,73.7,45.1,29.92,NE,48,1.0,3.0,36,0.00,,,0.00,Wunderground v.1.15,2013-05-06 01:16:00,
2013-05-05 20:17:00,73.7,45.1,29.92,NE,48,1.0,3.0,36,0.00,,,0.00,Wunderground v.1.15,2013-05-06 01:17:00,
2013-05-05 20:18:00,73.5,44.9,29.92,NE,48,1.0,3.0,36,0.00,,,0.00,Wunderground v.1.15,2013-05-06 01:18:00,
2013-05-05 20:21:00,73.3,45.4,29.92,ENE,58,0.0,2.0,37,0.00,,,0.00,Wunderground v.1.15,2013-05-06 01:21:00,
2013-05-05 20:22:00,73.2,45.4,29.92,NE,56,1.0,3.0,37,0.00,,,0.00,Wunderground v.1.15,2013-05-06 01:22:00,
2013-05-05 20:23:00,73.0,45.2,29.92,NE,56,1.0,3.0,37,0.00,,,0.00,Wunderground v.1.15,2013-05-06 01:23:00,
2013-05-05 20:24:00,73.0,45.2,29.92,ENE,58,1.0,3.0,37,0.00,,,0.00,Wunderground v.1.15,2013-05-06 01:24:00,
2013-05-05 20:28:00,72.7,45.6,29.92,NNE,23,2.0,3.0,38,0.00,,,0.00,Wunderground v.1.15,2013-05-06 01:28:00,
2013-05-05 20:29:00,72.5,45.4,29.92,NNE,23,2.0,3.0,38,0.00,,,0.00,Wunderground v.1.15,2013-05-06 01:29:00,
2013-05-05 20:30:00,72.3,45.3,29.92,NNE,24,2.0,2.0,38,0.00,,,0.00,Wunderground v.1.15,2013-05-06 01:30:00,
2013-05-05 20:34:00,72.1,45.1,29.93,NNE,25,2.0,2.0,38,0.00,,,0.00,Wunderground v.1.15,2013-05-06 01:34:00,
2013-05-05 20:36:00,72.0,45.0,29.93,NNE,25,2.0,2.0,38,0.00,,,0.00,Wunderground v.1.15,2013-05-06 01:36:00,
2013-05-05 20:37:00,71.8,44.8,29.93,NNE,25,2.0,2.0,38,0.00,,,0.00,Wunderground v.1.15,2013-05-06 01:37:00,
2013-05-05 20:39:00,71.8,45.5,29.93,NNE,23,2.0,2.0,39,0.00,,,0.00,Wunderground v.1.15,2013-05-06 01:39:00,
2013-05-05 20:40:00,71.6,45.3,29.93,NNE,23,1.0,2.0,39,0.00,,,0.00,Wunderground v.1.15,2013-05-06 01:40:00,
2013-05-05 20:42:00,71.5,45.2,29.93,NNE,24,1.0,2.0,39,0.00,,,0.00,Wunderground v.1.15,2013-05-06 01:42:00,
2013-05-05 20:44:00,71.3,45.1,29.93,NNE,25,2.0,3.0,39,0.00,,,0.00,Wunderground v.1.15,2013-05-06 01:44:00,
2013-05-05 20:46:00,71.1,45.5,29.93,NNE,25,1.0,3.0,40,0.00,,,0.00,Wunderground v.1.15,2013-05-06 01:46:00,
2013-05-05 20:47:00,71.1,45.5,29.93,NNE,25,1.0,3.0,40,0.00,,,0.00,Wunderground v.1.15,2013-05-06 01:47:00,
2013-05-05 20:48:00,70.9,45.4,29.93,NNE,25,1.0,3.0,40,0.00,,,0.00,Wunderground v.1.15,2013-05-06 01:48:00,
2013-05-05 20:49:00,70.9,45.4,29.93,NNE,25,1.0,3.0,40,0.00,,,0.00,Wunderground v.1.15,2013-05-06 01:49:00,
2013-05-05 20:52:00,70.8,45.3,29.93,NNE,25,1.0,1.0,40,0.00,,,0.00,Wunderground v.1.15,2013-05-06 01:52:00,
2013-05-05 20:53:00,70.8,45.3,29.93,NNE,25,1.0,2.0,40,0.00,,,0.00,Wunderground v.1.15,2013-05-06 01:53:00,
2013-05-05 20:54:00,70.6,45.1,29.93,NNE,25,1.0,2.0,40,0.00,,,0.00,Wunderground v.1.15,2013-05-06 01:54:00,
2013-05-05 20:55:00,70.6,45.1,29.93,NNE,24,1.0,2.0,40,0.00,,,0.00,Wunderground v.1.15,2013-05-06 01:55:00,
2013-05-05 20:56:00,70.4,44.9,29.93,NNE,25,1.0,2.0,40,0.00,,,0.00,Wunderground v.1.15,2013-05-06 01:56:00,
2013-05-05 21:01:00,70.3,45.5,29.93,NNE,25,1.0,1.0,41,0.00,,,0.00,Wunderground v.1.15,2013-05-06 02:01:00,
2013-05-05 21:02:00,70.1,45.3,29.94,NNE,25,1.0,1.0,41,0.00,,,0.00,Wunderground v.1.15,2013-05-06 02:02:00,
2013-05-05 21:03:00,70.1,45.3,29.94,NNE,25,1.0,1.0,41,0.00,,,0.00,Wunderground v.1.15,2013-05-06 02:03:00,
2013-05-05 21:04:00,70.1,45.3,29.94,NNE,25,1.0,1.0,41,0.00,,,0.00,Wunderground v.1.15,2013-05-06 02:04:00,
2013-05-05 21:05:00,70.1,45.3,29.94,NNE,25,1.0,1.0,41,0.00,,,0.00,Wunderground v.1.15,2013-05-06 02:05:00,
2013-05-05 21:08:00,69.9,45.1,29.94,NNE,25,1.0,1.0,41,0.00,,,0.00,Wunderground v.1.15,2013-05-06 02:08:00,
2013-05-05 21:11:00,69.8,45.0,29.94,NNE,25,1.0,1.0,41,0.00,,,0.00,Wunderground v.1.15,2013-05-06 02:11:00,
2013-05-05 21:13:00,69.6,45.5,29.94,NNE,25,1.0,1.0,42,0.00,,,0.00,Wunderground v.1.15,2013-05-06 02:13:00,
2013-05-05 21:15:00,69.4,45.3,29.94,NNE,25,0.0,1.0,42,0.00,,,0.00,Wunderground v.1.15,2013-05-06 02:15:00,
2013-05-05 21:16:00,69.4,45.3,29.94,NNE,25,0.0,1.0,42,0.00,,,0.00,Wunderground v.1.15,2013-05-06 02:16:00,
2013-05-05 21:20:00,69.3,45.2,29.94,NNE,25,0.0,1.0,42,0.00,,,0.00,Wunderground v.1.15,2013-05-06 02:20:00,
2013-05-05 21:21:00,69.3,45.2,29.94,NNE,25,0.0,0.0,42,0.00,,,0.00,Wunderground v.1.15,2013-05-06 02:21:00,
2013-05-05 21:22:00,69.1,45.0,29.94,NNE,25,0.0,0.0,42,0.00,,,0.00,Wunderground v.1.15,2013-05-06 02:22:00,
2013-05-05 21:24:00,69.1,45.0,29.94,NNE,25,0.0,0.0,42,0.00,,,0.00,Wunderground v.1.15,2013-05-06 02:24:00,
2013-05-05 21:26:00,68.9,45.5,29.94,NNE,25,0.0,0.0,43,0.00,,,0.00,Wunderground v.1.15,2013-05-06 02:26:00,
2013-05-05 21:28:00,68.9,45.5,29.94,NNE,25,0.0,1.0,43,0.00,,,0.00,Wunderground v.1.15,2013-05-06 02:28:00,
2013-05-05 21:29:00,68.8,45.4,29.94,NNE,25,0.0,1.0,43,0.00,,,0.00,Wunderground v.1.15,2013-05-06 02:29:00,
2013-05-05 21:30:00,68.8,45.4,29.94,NNE,25,0.0,1.0,43,0.00,,,0.00,Wunderground v.1.15,2013-05-06 02:30:00,
2013-05-05 21:31:00,68.8,45.4,29.95,NNE,25,0.0,0.0,43,0.00,,,0.00,Wunderground v.1.15,2013-05-06 02:31:00,
2013-05-05 21:33:00,68.6,45.2,29.95,NNE,25,0.0,0.0,43,0.00,,,0.00,Wunderground v.1.15,2013-05-06 02:33:00,
2013-05-05 21:35:00,68.4,45.6,29.95,NNE,25,0.0,1.0,44,0.00,,,0.00,Wunderground v.1.15,2013-05-06 02:35:00,
2013-05-05 21:36:00,68.4,45.6,29.95,NNE,25,0.0,1.0,44,0.00,,,0.00,Wunderground v.1.15,2013-05-06 02:36:00,
2013-05-05 21:39:00,68.3,45.5,29.95,NNE,25,0.0,1.0,44,0.00,,,0.00,Wunderground v.1.15,2013-05-06 02:39:00,
2013-05-05 21:40:00,68.1,45.4,29.95,NNE,25,0.0,1.0,44,0.00,,,0.00,Wunderground v.1.15,2013-05-06 02:40:00,
2013-05-05 21:41:00,68.1,45.4,29.95,NNE,25,0.0,0.0,44,0.00,,,0.00,Wunderground v.1.15,2013-05-06 02:41:00,
2013-05-05 21:44:00,67.9,45.2,29.95,NNE,25,0.0,0.0,44,0.00,,,0.00,Wunderground v.1.15,2013-05-06 02:44:00,
2013-05-05 21:45:00,67.9,45.8,29.95,NNE,25,0.0,0.0,45,0.00,,,0.00,Wunderground v.1.15,2013-05-06 02:45:00,
2013-05-05 21:47:00,67.8,45.7,29.96,NNE,25,0.0,0.0,45,0.00,,,0.00,Wunderground v.1.15,2013-05-06 02:47:00,
2013-05-05 21:48:00,67.8,45.7,29.96,NNE,25,0.0,0.0,45,0.00,,,0.00,Wunderground v.1.15,2013-05-06 02:48:00,
2013-05-05 21:53:00,67.6,45.5,29.96,NNE,25,0.0,2.0,45,0.00,,,0.00,Wunderground v.1.15,2013-05-06 02:53:00,
2013-05-05 21:54:00,67.6,45.5,29.96,NNE,25,0.0,2.0,45,0.00,,,0.00,Wunderground v.1.15,2013-05-06 02:54:00,
2013-05-05 21:55:00,67.6,45.5,29.96,NNE,25,0.0,2.0,45,0.00,,,0.00,Wunderground v.1.15,2013-05-06 02:55:00,
2013-05-05 21:59:00,67.4,45.9,29.96,NNE,25,0.0,2.0,46,0.00,,,0.00,Wunderground v.1.15,2013-05-06 02:59:00,
2013-05-05 22:00:00,67.3,45.8,29.96,NNE,25,0.0,0.0,46,0.00,,,0.00,Wunderground v.1.15,2013-05-06 03:00:00,
2013-05-05 22:01:00,67.3,45.8,29.96,NNE,25,0.0,0.0,46,0.00,,,0.00,Wunderground v.1.15,2013-05-06 03:01:00,
2013-05-05 22:05:00,67.1,45.6,29.96,NNE,25,0.0,2.0,46,0.00,,,0.00,Wunderground v.1.15,2013-05-06 03:05:00,
2013-05-05 22:06:00,67.1,45.6,29.96,NNE,25,1.0,2.0,46,0.00,,,0.00,Wunderground v.1.15,2013-05-06 03:06:00,
2013-05-05 22:07:00,67.1,45.6,29.96,NNE,25,1.0,2.0,46,0.00,,,0.00,Wunderground v.1.15,2013-05-06 03:07:00,
2013-05-05 22:11:00,67.1,45.6,29.96,NNE,24,2.0,2.0,46,0.00,,,0.00,Wunderground v.1.15,2013-05-06 03:11:00,
2013-05-05 22:12:00,67.1,45.6,29.96,NNE,24,2.0,2.0,46,0.00,,,0.00,Wunderground v.1.15,2013-05-06 03:12:00,
2013-05-05 22:13:00,67.1,45.6,29.96,NNE,24,2.0,2.0,46,0.00,,,0.00,Wunderground v.1.15,2013-05-06 03:13:00,
2013-05-05 22:14:00,67.1,45.6,29.96,NNE,24,2.0,2.0,46,0.00,,,0.00,Wunderground v.1.15,2013-05-06 03:14:00,
2013-05-05 22:18:00,66.9,45.4,29.96,NNE,24,2.0,3.0,46,0.00,,,0.00,Wunderground v.1.15,2013-05-06 03:18:00,
2013-05-05 22:19:00,66.9,45.4,29.96,NNE,24,2.0,3.0,46,0.00,,,0.00,Wunderground v.1.15,2013-05-06 03:19:00,
2013-05-05 22:20:00,66.9,45.4,29.96,NNE,24,2.0,2.0,46,0.00,,,0.00,Wunderground v.1.15,2013-05-06 03:20:00,
2013-05-05 22:23:00,66.8,45.9,29.96,NNE,23,2.0,3.0,47,0.00,,,0.00,Wunderground v.1.15,2013-05-06 03:23:00,
2013-05-05 22:25:00,66.6,45.7,29.96,ESE,107,2.0,6.0,47,0.00,,,0.00,Wunderground v.1.15,2013-05-06 03:25:00,
2013-05-05 22:27:00,66.4,46.1,29.96,East,96,2.0,6.0,48,0.00,,,0.00,Wunderground v.1.15,2013-05-06 03:27:00,
2013-05-05 22:29:00,66.1,45.8,29.96,East,96,2.0,6.0,48,0.00,,,0.00,Wunderground v.1.15,2013-05-06 03:29:00,
2013-05-05 22:32:00,66.0,45.7,29.97,East,96,1.0,3.0,48,0.00,,,0.00,Wunderground v.1.15,2013-05-06 03:32:00,
2013-05-05 22:34:00,65.8,46.1,29.97,ENE,66,1.0,3.0,49,0.00,,,0.00,Wunderground v.1.15,2013-05-06 03:34:00,
2013-05-05 22:36:00,65.6,45.9,29.97,ENE,66,1.0,3.0,49,0.00,,,0.00,Wunderground v.1.15,2013-05-06 03:36:00,
2013-05-05 22:38:00,65.5,45.8,29.97,ENE,66,1.0,3.0,49,0.00,,,0.00,Wunderground v.1.15,2013-05-06 03:38:00,
2013-05-05 22:39:00,65.3,46.2,29.97,ENE,66,1.0,3.0,50,0.00,,,0.00,Wunderground v.1.15,2013-05-06 03:39:00,
2013-05-05 22:40:00,65.3,46.2,29.97,ENE,66,1.0,1.0,50,0.00,,,0.00,Wunderground v.1.15,2013-05-06 03:40:00,
2013-05-05 22:42:00,65.2,46.1,29.97,ENE,66,0.0,1.0,50,0.00,,,0.00,Wunderground v.1.15,2013-05-06 03:42:00,
2013-05-05 22:44:00,65.0,45.9,29.97,ENE,66,0.0,1.0,50,0.00,,,0.00,Wunderground v.1.15,2013-05-06 03:44:00,
2013-05-05 22:45:00,65.0,45.9,29.97,ENE,66,0.0,1.0,50,0.00,,,0.00,Wunderground v.1.15,2013-05-06 03:45:00,
2013-05-05 22:46:00,65.0,45.9,29.97,ENE,66,0.0,2.0,50,0.00,,,0.00,Wunderground v.1.15,2013-05-06 03:46:00,
2013-05-05 22:49:00,64.8,46.2,29.98,ENE,66,0.0,2.0,51,0.00,,,0.00,Wunderground v.1.15,2013-05-06 03:49:00,
2013-05-05 22:50:00,64.8,46.2,29.98,ENE,66,0.0,0.0,51,0.00,,,0.00,Wunderground v.1.15,2013-05-06 03:50:00,
2013-05-05 22:51:00,64.8,46.2,29.98,ENE,66,0.0,0.0,51,0.00,,,0.00,Wunderground v.1.15,2013-05-06 03:51:00,
2013-05-05 22:53:00,64.7,46.1,29.98,ENE,66,0.0,1.0,51,0.00,,,0.00,Wunderground v.1.15,2013-05-06 03:53:00,
2013-05-05 22:56:00,64.5,46.0,29.98,ENE,66,0.0,1.0,51,0.00,,,0.00,Wunderground v.1.15,2013-05-06 03:56:00,
2013-05-05 22:57:00,64.5,46.0,29.98,ENE,66,0.0,1.0,51,0.00,,,0.00,Wunderground v.1.15,2013-05-06 03:57:00,
2013-05-05 22:58:00,64.5,46.0,29.98,ENE,66,0.0,1.0,51,0.00,,,0.00,Wunderground v.1.15,2013-05-06 03:58:00,
2013-05-05 23:01:00,64.3,45.8,29.99,ENE,66,0.0,0.0,51,0.00,,,0.00,Wunderground v.1.15,2013-05-06 04:01:00,
2013-05-05 23:02:00,64.3,45.8,29.99,ENE,66,0.0,0.0,51,0.00,,,0.00,Wunderground v.1.15,2013-05-06 04:02:00,
2013-05-05 23:04:00,64.3,45.8,29.99,ENE,66,0.0,0.0,51,0.00,,,0.00,Wunderground v.1.15,2013-05-06 04:04:00,
2013-05-05 23:05:00,64.3,45.8,29.99,ENE,66,0.0,0.0,51,0.00,,,0.00,Wunderground v.1.15,2013-05-06 04:05:00,
2013-05-05 23:08:00,64.2,45.7,29.99,ENE,66,0.0,1.0,51,0.00,,,0.00,Wunderground v.1.15,2013-05-06 04:08:00,
2013-05-05 23:10:00,64.0,46.0,29.99,ENE,66,0.0,0.0,52,0.00,,,0.00,Wunderground v.1.15,2013-05-06 04:10:00,
2013-05-05 23:13:00,64.0,46.0,29.99,ENE,66,0.0,0.0,52,0.00,,,0.00,Wunderground v.1.15,2013-05-06 04:13:00,
2013-05-05 23:15:00,63.9,45.9,29.99,ENE,66,0.0,0.0,52,0.00,,,0.00,Wunderground v.1.15,2013-05-06 04:15:00,
2013-05-05 23:16:00,63.9,45.9,29.99,ENE,66,0.0,0.0,52,0.00,,,0.00,Wunderground v.1.15,2013-05-06 04:16:00,
2013-05-05 23:19:00,63.7,45.7,29.98,ENE,66,0.0,0.0,52,0.00,,,0.00,Wunderground v.1.15,2013-05-06 04:19:00,
2013-05-05 23:20:00,63.7,45.7,29.98,ENE,66,0.0,0.0,52,0.00,,,0.00,Wunderground v.1.15,2013-05-06 04:20:00,
2013-05-05 23:21:00,63.7,45.7,29.98,ENE,66,0.0,0.0,52,0.00,,,0.00,Wunderground v.1.15,2013-05-06 04:21:00,
2013-05-05 23:23:00,63.5,45.6,29.98,ENE,66,0.0,0.0,52,0.00,,,0.00,Wunderground v.1.15,2013-05-06 04:23:00,
2013-05-05 23:26:00,63.4,45.5,29.98,ENE,66,0.0,0.0,52,0.00,,,0.00,Wunderground v.1.15,2013-05-06 04:26:00,
2013-05-05 23:28:00,63.4,45.5,29.98,ENE,66,0.0,0.0,52,0.00,,,0.00,Wunderground v.1.15,2013-05-06 04:28:00,
2013-05-05 23:29:00,63.2,45.3,29.98,ENE,66,0.0,0.0,52,0.00,,,0.00,Wunderground v.1.15,2013-05-06 04:29:00,
2013-05-05 23:31:00,63.2,45.3,29.98,ENE,66,0.0,0.0,52,0.00,,,0.00,Wunderground v.1.15,2013-05-06 04:31:00,
2013-05-05 23:34:00,63.1,45.2,29.98,ENE,66,0.0,0.0,52,0.00,,,0.00,Wunderground v.1.15,2013-05-06 04:34:00,
2013-05-05 23:36:00,63.1,45.7,29.98,ENE,66,0.0,1.0,53,0.00,,,0.00,Wunderground v.1.15,2013-05-06 04:36:00,
2013-05-05 23:39:00,63.1,45.7,29.98,ENE,66,0.0,1.0,53,0.00,,,0.00,Wunderground v.1.15,2013-05-06 04:39:00,
2013-05-05 23:41:00,62.9,45.5,29.98,ENE,66,0.0,1.0,53,0.00,,,0.00,Wunderground v.1.15,2013-05-06 04:41:00,
2013-05-05 23:42:00,62.9,45.5,29.98,ENE,66,0.0,1.0,53,0.00,,,0.00,Wunderground v.1.15,2013-05-06 04:42:00,
2013-05-05 23:43:00,62.9,45.5,29.98,ENE,66,0.0,2.0,53,0.00,,,0.00,Wunderground v.1.15,2013-05-06 04:43:00,
2013-05-05 23:45:00,62.7,45.8,29.98,ENE,66,1.0,2.0,54,0.00,,,0.00,Wunderground v.1.15,2013-05-06 04:45:00,
2013-05-05 23:49:00,62.6,45.7,29.98,ENE,66,1.0,2.0,54,0.00,,,0.00,Wunderground v.1.15,2013-05-06 04:49:00,
2013-05-05 23:51:00,62.4,45.5,29.98,ENE,66,1.0,1.0,54,0.00,,,0.00,Wunderground v.1.15,2013-05-06 04:51:00,
2013-05-05 23:52:00,62.4,45.5,29.98,ENE,66,1.0,1.0,54,0.00,,,0.00,Wunderground v.1.15,2013-05-06 04:52:00,
2013-05-05 23:55:00,62.3,45.9,29.98,ENE,66,0.0,1.0,55,0.00,,,0.00,Wunderground v.1.15,2013-05-06 04:55:00,
2013-05-05 23:56:00,62.3,45.4,29.98,NE,44,0.0,2.0,54,0.00,,,0.00,Wunderground v.1.15,2013-05-06 04:56:00,
2013-05-05 23:57:00,62.3,45.9,29.98,NE,44,0.0,2.0,55,0.00,,,0.00,Wunderground v.1.15,2013-05-06 04:57:00,